Darstellungsparameter: Aktuell verwendete Einstellungen:
Skalierung der Graphiken ... ?
xyx+y,   Skalierungsfaktor:      Skalierung: Modus: x, Faktor: 1
Darstellungszeitraum ... ?
Vom - - bis: - -   Zeitraum: 09.03.2003 - 16.03.2003
Min/Max/Avg-Anzeige ... ?
Zeige MMA aktuell
Zeige MMA Monat
Zeige MMA alles
Zeige --A aktuell
Zeige --A Monat
Zeige --A alles
Keine MMA-Anzeige
MMA:
Average (ber die Originaldaten)
MMA-Basis: 09.03.2003 - 16.03.2003
Quicknavigation für Darstellung... ?
Tage:      1T, 2T, 3T, 5T -1T -2T -3T -5T +1T +2T +3T +5T
Wochen: 1W, 2W, 3W -1W -2W -3W +1W +2W +3W
Monate: 1M, 3M, 6M -1M -3M -6M +1M +3M +6M
Jahre:    1J, 3J, 5J, 10J -1J -3J -5J -10J +1J +3J +5J +10J
Nutze für die Darstellung ... ?
Originaldaten oder Mittelwerte auf ...
Stundenbasis Tagesbasis Wochenbasis
Monatsbasis Jahresbasis      Datenbasis: Original-Daten
Darstellen als:
Statistik (Auto) Statistik J:M      Darstellung:
Zur Graphik,    zurück zur Übersicht aller Sensoren.
 
Tabellarische Datenbersicht: ?
 
Sensor: Nr:Datum:Temp:Abs-Feuchte:Windchill:Wind:
Aussen-T/F 1 09-03-2003 00:05:13 9 C 4.85 g/m*3 9 C 0 km/h
2 09-03-2003 00:17:13 9 C 4.85 g/m*3 9 C 0 km/h
3 09-03-2003 00:29:13 9 C 4.85 g/m*3 9 C 0 km/h
4 09-03-2003 00:41:13 9 C 4.85 g/m*3 9 C 0 km/h
5 09-03-2003 00:53:13 9 C 4.94 g/m*3 9 C 0 km/h
6 09-03-2003 01:05:13 8.2 C 5.28 g/m*3 8.2 C 0 km/h
7 09-03-2003 01:17:13 8 C 5.21 g/m*3 8 C 0 km/h
8 09-03-2003 01:29:13 8.4 C 5.17 g/m*3 8.4 C 0 km/h
9 09-03-2003 01:41:13 8.5 C 5.12 g/m*3 8.5 C 0 km/h
10 09-03-2003 01:53:13 8.6 C 5.16 g/m*3 8.6 C 0 km/h
11 09-03-2003 02:05:13 8.4 C 5.17 g/m*3 8.4 C 0 km/h
12 09-03-2003 02:17:13 8 C 5.37 g/m*3 8 C 0 km/h
13 09-03-2003 02:29:13 7.4 C 5.65 g/m*3 7.4 C 0 km/h
14 09-03-2003 02:41:13 7.4 C 5.57 g/m*3 7.4 C 0 km/h
15 09-03-2003 02:53:13 7.5 C 5.44 g/m*3 7.5 C 0 km/h
16 09-03-2003 03:05:13 7.7 C 5.43 g/m*3 7.7 C 0 km/h
17 09-03-2003 03:17:13 8 C 5.29 g/m*3 8 C 0 km/h
18 09-03-2003 03:29:13 8.1 C 5.24 g/m*3 8.1 C 0 km/h
19 09-03-2003 03:41:13 8 C 5.21 g/m*3 8 C 0 km/h
20 09-03-2003 03:53:13 8.2 C 5.19 g/m*3 8.2 C 0 km/h
21 09-03-2003 04:05:13 8.1 C 5.16 g/m*3 8.1 C 0 km/h
22 09-03-2003 04:17:13 8 C 5.13 g/m*3 8 C 0 km/h
23 09-03-2003 04:29:13 7.9 C 5.17 g/m*3 7.9 C 0 km/h
24 09-03-2003 04:41:13 8 C 5.13 g/m*3 8 C 0 km/h
25 09-03-2003 04:53:13 7.8 C 5.14 g/m*3 7.8 C 0 km/h
Sensor: Nr:Datum:Temp:Abs-Feuchte:Windchill:Wind:
Aussen-T/F 26 09-03-2003 05:05:13 7.8 C 5.14 g/m*3 7.8 C 0 km/h
27 09-03-2003 05:17:13 7.5 C 5.2 g/m*3 7.5 C 0 km/h
28 09-03-2003 05:29:13 7.3 C 5.21 g/m*3 7.3 C 0 km/h
29 09-03-2003 05:41:13 7.4 C 5.17 g/m*3 7.4 C 0 km/h
30 09-03-2003 05:53:13 7 C 5.19 g/m*3 7 C 0 km/h
31 09-03-2003 06:05:13 6.7 C 5.32 g/m*3 6.7 C 0 km/h
32 09-03-2003 06:17:13 6.8 C 5.35 g/m*3 6.8 C 0 km/h
33 09-03-2003 06:29:13 6.9 C 5.39 g/m*3 6.9 C 0 km/h
34 09-03-2003 06:41:13 7 C 5.35 g/m*3 7 C 0 km/h
35 09-03-2003 06:53:13 7 C 5.27 g/m*3 7 C 0 km/h
36 09-03-2003 07:05:13 7 C 5.35 g/m*3 7 C 0 km/h
37 09-03-2003 07:17:13 7 C 5.27 g/m*3 7 C 0 km/h
38 09-03-2003 07:29:13 7 C 5.27 g/m*3 7 C 0 km/h
39 09-03-2003 07:41:13 7.1 C 5.23 g/m*3 7.1 C 0 km/h
40 09-03-2003 07:53:13 7.3 C 5.29 g/m*3 7.3 C 0 km/h
41 09-03-2003 08:05:13 7.4 C 5.25 g/m*3 7.4 C 0 km/h
42 09-03-2003 08:17:13 7.7 C 5.27 g/m*3 7.7 C 0 km/h
43 09-03-2003 08:29:13 7.9 C 5.26 g/m*3 7.9 C 0 km/h
44 09-03-2003 08:41:13 8.1 C 5.16 g/m*3 8.1 C 0 km/h
45 09-03-2003 08:53:13 8.3 C 5.14 g/m*3 8.3 C 0 km/h
46 09-03-2003 09:05:13 8.5 C 5.21 g/m*3 8.5 C 0 km/h
47 09-03-2003 09:17:13 8.5 C 5.21 g/m*3 8.5 C 0 km/h
48 09-03-2003 09:29:13 8.6 C 5.24 g/m*3 8.6 C 0 km/h
49 09-03-2003 09:41:13 8.7 C 5.19 g/m*3 8.7 C 0 km/h
50 09-03-2003 09:53:13 9 C 5.2 g/m*3 9 C 0 km/h
Sensor: Nr:Datum:Temp:Abs-Feuchte:Windchill:Wind:
Aussen-T/F 51 09-03-2003 10:05:13 9.1 C 5.23 g/m*3 9.1 C 0 km/h
52 09-03-2003 10:17:13 9.4 C 5.34 g/m*3 9.4 C 0 km/h
53 09-03-2003 10:29:13 9.5 C 5.28 g/m*3 9.5 C 0 km/h
54 09-03-2003 10:41:13 9.5 C 5.28 g/m*3 9.5 C 0 km/h
55 09-03-2003 10:53:13 9.5 C 5.28 g/m*3 9.5 C 0 km/h
56 09-03-2003 11:05:12 9.5 C 5.28 g/m*3 9.5 C 0 km/h
57 09-03-2003 11:17:12 9.5 C 5.28 g/m*3 9.5 C 0 km/h
58 09-03-2003 11:29:12 9.5 C 5.28 g/m*3 9.5 C 0 km/h
59 09-03-2003 11:41:12 9.5 C 5.28 g/m*3 9.5 C 0 km/h
60 09-03-2003 11:53:12 9.5 C 5.28 g/m*3 9.5 C 0 km/h
61 09-03-2003 12:05:12 9.5 C 5.28 g/m*3 9.5 C 0 km/h
62 09-03-2003 12:17:12 9.5 C 5.28 g/m*3 9.5 C 0 km/h
63 09-03-2003 12:29:12 9.5 C 5.28 g/m*3 9.5 C 0 km/h
64 09-03-2003 12:41:12 9.5 C 5.28 g/m*3 9.5 C 0 km/h
65 09-03-2003 12:53:12 9.5 C 5.28 g/m*3 9.5 C 0 km/h
66 09-03-2003 13:05:12 9.5 C 5.28 g/m*3 9.5 C 0 km/h
67 09-03-2003 13:17:12 9.5 C 5.28 g/m*3 9.5 C 0 km/h
68 09-03-2003 13:29:12 9.5 C 5.28 g/m*3 9.5 C 0 km/h
69 09-03-2003 13:41:12 9.5 C 5.28 g/m*3 9.5 C 0 km/h
70 09-03-2003 13:53:12 9.5 C 5.28 g/m*3 9.5 C 0 km/h
71 09-03-2003 14:05:12 9.5 C 5.28 g/m*3 9.5 C 0 km/h
72 09-03-2003 14:17:12 9.5 C 5.28 g/m*3 9.5 C 0 km/h
73 09-03-2003 14:29:12 9.5 C 5.28 g/m*3 9.5 C 0 km/h
74 09-03-2003 14:41:12 15.5 C 5.02 g/m*3 15.5 C 0 km/h
75 09-03-2003 14:53:12 16.1 C 4.93 g/m*3 16.1 C 0 km/h
Sensor: Nr:Datum:Temp:Abs-Feuchte:Windchill:Wind:
Aussen-T/F 76 09-03-2003 15:05:13 15.8 C 4.85 g/m*3 15.8 C 0 km/h
77 09-03-2003 15:17:13 15.8 C 4.85 g/m*3 15.8 C 0 km/h
78 09-03-2003 15:29:13 15.9 C 5.01 g/m*3 15.9 C 0 km/h
79 09-03-2003 15:41:13 15.9 C 5.01 g/m*3 15.9 C 0 km/h
80 09-03-2003 15:53:13 16.3 C 4.86 g/m*3 16.3 C 0 km/h
81 09-03-2003 16:05:12 17 C 4.77 g/m*3 17 C 0 km/h
82 09-03-2003 16:17:12 17 C 4.77 g/m*3 17 C 0 km/h
83 09-03-2003 16:29:12 17 C 4.77 g/m*3 17 C 0 km/h
84 09-03-2003 19:17:19 12.8 C 5.15 g/m*3 12.8 C 0 km/h
85 09-03-2003 19:25:12 12.8 C 5.15 g/m*3 12.8 C 0 km/h
86 09-03-2003 19:37:12 11.5 C 5.37 g/m*3 11.5 C 0 km/h
87 09-03-2003 19:49:12 12 C 5.22 g/m*3 12 C 0 km/h
88 09-03-2003 20:01:12 13.1 C 5.02 g/m*3 13.1 C 0 km/h
89 09-03-2003 20:13:12 13.2 C 5.05 g/m*3 13.2 C 0 km/h
90 09-03-2003 20:25:12 13.2 C 5.05 g/m*3 13.2 C 0 km/h
91 09-03-2003 20:37:12 13.1 C 5.02 g/m*3 13.1 C 0 km/h
92 09-03-2003 20:49:12 12.8 C 5.15 g/m*3 12.8 C 0 km/h
93 09-03-2003 21:01:12 12.8 C 5.26 g/m*3 12.8 C 0 km/h
94 09-03-2003 21:14:13 12.4 C 5.24 g/m*3 12.4 C 0 km/h
95 09-03-2003 21:26:13 12.2 C 5.29 g/m*3 12.2 C 0 km/h
96 09-03-2003 21:38:13 11.9 C 5.4 g/m*3 11.9 C 0 km/h
97 09-03-2003 21:50:13 11.8 C 5.37 g/m*3 11.8 C 0 km/h
98 09-03-2003 22:02:13 11.5 C 5.37 g/m*3 11.5 C 0 km/h
99 09-03-2003 22:14:13 11.3 C 5.41 g/m*3 11.3 C 0 km/h
100 09-03-2003 22:26:13 11.2 C 5.47 g/m*3 11.2 C 0 km/h
Sensor: Nr:Datum:Temp:Abs-Feuchte:Windchill:Wind:
Aussen-T/F 101 09-03-2003 22:50:13 10.8 C 5.54 g/m*3 10.8 C 0 km/h
102 09-03-2003 23:02:13 10.6 C 5.56 g/m*3 10.6 C 0 km/h
103 09-03-2003 23:14:13 10.5 C 5.63 g/m*3 10.5 C 0 km/h
104 09-03-2003 23:26:13 10.2 C 5.52 g/m*3 10.2 C 0 km/h
105 09-03-2003 23:38:13 9.8 C 5.57 g/m*3 9.8 C 0 km/h
106 09-03-2003 23:50:13 9.4 C 5.52 g/m*3 9.4 C 0 km/h
107 10-03-2003 00:02:13 9.1 C 5.5 g/m*3 9.1 C 0 km/h
108 10-03-2003 00:14:13 8.9 C 5.61 g/m*3 8.9 C 0 km/h
109 10-03-2003 00:26:13 8.6 C 5.5 g/m*3 8.6 C 0 km/h
110 10-03-2003 00:38:13 8.3 C 5.48 g/m*3 8.3 C 0 km/h
111 10-03-2003 00:50:13 8.2 C 5.44 g/m*3 8.2 C 0 km/h
112 10-03-2003 01:02:13 7.5 C 5.28 g/m*3 7.5 C 0 km/h
113 10-03-2003 01:14:13 7.1 C 5.46 g/m*3 7.1 C 0 km/h
114 10-03-2003 01:26:13 7.4 C 5.49 g/m*3 7.4 C 0 km/h
115 10-03-2003 01:38:13 7.5 C 5.44 g/m*3 7.5 C 0 km/h
116 10-03-2003 01:50:13 7.4 C 5.41 g/m*3 7.4 C 0 km/h
117 10-03-2003 02:02:13 6.8 C 5.43 g/m*3 6.8 C 0 km/h
118 10-03-2003 02:14:13 6.4 C 5.29 g/m*3 6.4 C 0 km/h
119 10-03-2003 02:26:13 5.7 C 5.34 g/m*3 5.7 C 0 km/h
120 10-03-2003 02:38:13 5.3 C 5.27 g/m*3 5.3 C 0 km/h
121 10-03-2003 02:50:13 5.1 C 5.27 g/m*3 5.1 C 0 km/h
122 10-03-2003 03:02:13 5 C 5.3 g/m*3 5 C 0 km/h
123 10-03-2003 03:14:13 4.6 C 5.23 g/m*3 4.6 C 0 km/h
124 10-03-2003 03:26:13 4.4 C 5.22 g/m*3 4.4 C 0 km/h
125 10-03-2003 03:38:13 4.4 C 5.22 g/m*3 4.4 C 0 km/h
Sensor: Nr:Datum:Temp:Abs-Feuchte:Windchill:Wind:
Aussen-T/F 126 10-03-2003 03:50:13 4.2 C 5.15 g/m*3 4.2 C 0 km/h
127 10-03-2003 04:02:13 4.3 C 5.25 g/m*3 4.3 C 0 km/h
128 10-03-2003 04:14:13 5.1 C 5.4 g/m*3 5.1 C 0 km/h
129 10-03-2003 04:26:13 6 C 5.23 g/m*3 6 C 0 km/h
130 10-03-2003 04:38:13 5.6 C 5.16 g/m*3 5.6 C 0 km/h
131 10-03-2003 04:50:13 4.8 C 5.1 g/m*3 4.8 C 0 km/h
132 10-03-2003 05:02:13 5 C 5.23 g/m*3 5 C 0 km/h
133 10-03-2003 05:14:13 4.5 C 5.06 g/m*3 4.5 C 0 km/h
134 10-03-2003 05:26:13 4.1 C 5.06 g/m*3 4.1 C 0 km/h
135 10-03-2003 05:38:13 4 C 5.09 g/m*3 4 C 0 km/h
136 10-03-2003 05:50:13 4 C 5.15 g/m*3 4 C 0 km/h
137 10-03-2003 06:02:13 4.7 C 5.33 g/m*3 4.7 C 0 km/h
138 10-03-2003 06:14:13 6.2 C 5.22 g/m*3 6.2 C 0 km/h
139 10-03-2003 06:26:13 6 C 5.01 g/m*3 6 C 0 km/h
140 10-03-2003 06:38:13 5 C 4.89 g/m*3 5 C 0 km/h
141 10-03-2003 06:50:13 4.7 C 5 g/m*3 4.7 C 0 km/h
142 10-03-2003 07:02:13 4.6 C 4.96 g/m*3 4.6 C 0 km/h
143 10-03-2003 07:14:13 4.6 C 4.96 g/m*3 4.6 C 0 km/h
144 10-03-2003 07:26:13 4.7 C 5 g/m*3 4.7 C 0 km/h
145 10-03-2003 07:38:13 4.8 C 4.96 g/m*3 4.8 C 0 km/h
146 10-03-2003 07:50:13 4.8 C 5.03 g/m*3 4.8 C 0 km/h
147 10-03-2003 08:02:13 4.5 C 4.93 g/m*3 4.5 C 0 km/h
148 10-03-2003 08:14:13 4.5 C 5 g/m*3 4.5 C 0 km/h
149 10-03-2003 08:26:13 4.5 C 5 g/m*3 4.5 C 0 km/h
150 10-03-2003 08:38:13 5.1 C 5.06 g/m*3 5.1 C 0 km/h
Sensor: Nr:Datum:Temp:Abs-Feuchte:Windchill:Wind:
Aussen-T/F 151 10-03-2003 08:50:13 5.4 C 5.09 g/m*3 5.4 C 0 km/h
152 10-03-2003 09:02:13 5.5 C 5.13 g/m*3 5.5 C 0 km/h
153 10-03-2003 09:14:13 5.6 C 5.23 g/m*3 5.6 C 0 km/h
154 10-03-2003 09:26:13 6 C 5.3 g/m*3 6 C 0 km/h
155 10-03-2003 09:38:13 7.5 C 5.6 g/m*3 7.5 C 0 km/h
156 10-03-2003 09:50:13 8.4 C 5.51 g/m*3 8.4 C 0 km/h
157 10-03-2003 10:02:12 9.2 C 5.45 g/m*3 9.2 C 0 km/h
158 10-03-2003 10:14:12 9.7 C 5.62 g/m*3 9.7 C 0 km/h
159 10-03-2003 10:26:12 10 C 5.64 g/m*3 10 C 0 km/h
160 10-03-2003 10:38:12 10.9 C 5.97 g/m*3 10.9 C 0 km/h
161 10-03-2003 10:50:12 11.4 C 6.06 g/m*3 11.4 C 0 km/h
162 10-03-2003 11:02:13 11.7 C 5.86 g/m*3 11.7 C 0 km/h
163 10-03-2003 11:14:13 12.4 C 5.79 g/m*3 12.4 C 0 km/h
164 10-03-2003 11:26:13 13 C 5.9 g/m*3 13 C 0 km/h
165 10-03-2003 11:38:13 13.5 C 5.73 g/m*3 13.5 C 0 km/h
166 10-03-2003 11:50:13 14.1 C 5.7 g/m*3 14.1 C 0 km/h
167 10-03-2003 12:02:13 14.6 C 5.63 g/m*3 14.6 C 0 km/h
168 10-03-2003 12:14:13 15.1 C 5.68 g/m*3 15.1 C 0 km/h
169 10-03-2003 12:26:13 15.6 C 5.72 g/m*3 15.6 C 0 km/h
170 10-03-2003 12:38:13 15.7 C 5.49 g/m*3 15.7 C 0 km/h
171 10-03-2003 12:50:13 15.8 C 5.52 g/m*3 15.8 C 0 km/h
172 10-03-2003 13:02:12 15.9 C 5.55 g/m*3 15.9 C 0 km/h
173 10-03-2003 13:14:12 16.2 C 5.65 g/m*3 16.2 C 0 km/h
174 10-03-2003 13:26:12 16.9 C 5.9 g/m*3 16.9 C 0 km/h
175 10-03-2003 13:38:12 16.6 C 5.65 g/m*3 16.6 C 0 km/h
Sensor: Nr:Datum:Temp:Abs-Feuchte:Windchill:Wind:
Aussen-T/F 176 10-03-2003 13:50:12 16.8 C 5.72 g/m*3 16.8 C 0 km/h
177 10-03-2003 14:02:12 17.5 C 5.96 g/m*3 17.5 C 0 km/h
178 10-03-2003 14:14:12 17.7 C 5.88 g/m*3 17.7 C 0 km/h
179 10-03-2003 14:26:12 17.2 C 5.86 g/m*3 17.2 C 0 km/h
180 10-03-2003 14:38:12 16.9 C 6.04 g/m*3 16.9 C 0 km/h
181 10-03-2003 14:50:12 16.8 C 6 g/m*3 16.8 C 0 km/h
182 10-03-2003 15:02:12 16.7 C 5.97 g/m*3 16.7 C 0 km/h
183 10-03-2003 15:14:12 16.8 C 6 g/m*3 16.8 C 0 km/h
184 10-03-2003 15:26:12 16.8 C 6 g/m*3 16.8 C 0 km/h
185 10-03-2003 15:38:12 16.7 C 5.97 g/m*3 16.7 C 0 km/h
186 10-03-2003 15:50:12 16.8 C 6 g/m*3 16.8 C 0 km/h
187 10-03-2003 16:02:12 16.8 C 6 g/m*3 16.8 C 0 km/h
188 10-03-2003 16:14:12 16.7 C 5.97 g/m*3 16.7 C 0 km/h
189 10-03-2003 16:26:12 16.7 C 6.11 g/m*3 16.7 C 0 km/h
190 10-03-2003 16:38:12 16.8 C 6.15 g/m*3 16.8 C 0 km/h
191 10-03-2003 16:50:12 16.5 C 6.04 g/m*3 16.5 C 0 km/h
192 10-03-2003 17:02:12 16.7 C 6.11 g/m*3 16.7 C 0 km/h
193 10-03-2003 17:14:12 16.4 C 6.14 g/m*3 16.4 C 0 km/h
194 10-03-2003 17:26:12 16.3 C 6.24 g/m*3 16.3 C 0 km/h
195 10-03-2003 17:38:12 16.2 C 6.21 g/m*3 16.2 C 0 km/h
196 10-03-2003 17:50:12 15.7 C 6.29 g/m*3 15.7 C 0 km/h
197 10-03-2003 18:02:12 15.3 C 6.4 g/m*3 15.3 C 0 km/h
198 10-03-2003 18:14:12 14.8 C 6.46 g/m*3 14.8 C 0 km/h
199 10-03-2003 18:26:12 14.6 C 6.51 g/m*3 14.6 C 0 km/h
200 10-03-2003 18:38:12 13.8 C 6.67 g/m*3 13.8 C 0 km/h
Sensor: Nr:Datum:Temp:Abs-Feuchte:Windchill:Wind:
Aussen-T/F 201 10-03-2003 18:50:12 13.4 C 6.74 g/m*3 13.4 C 0 km/h
202 10-03-2003 19:03:13 13.3 C 6.82 g/m*3 13.3 C 0 km/h
203 10-03-2003 19:15:13 13.2 C 6.77 g/m*3 13.2 C 0 km/h
204 10-03-2003 19:27:13 13 C 6.8 g/m*3 13 C 0 km/h
205 10-03-2003 19:39:13 12.8 C 6.94 g/m*3 12.8 C 0 km/h
206 10-03-2003 19:51:13 12.7 C 6.9 g/m*3 12.7 C 0 km/h
207 10-03-2003 20:03:13 12.7 C 6.9 g/m*3 12.7 C 0 km/h
208 10-03-2003 20:15:13 12.4 C 6.99 g/m*3 12.4 C 0 km/h
209 10-03-2003 20:27:13 12.3 C 6.95 g/m*3 12.3 C 0 km/h
210 10-03-2003 20:39:13 12.3 C 6.95 g/m*3 12.3 C 0 km/h
211 10-03-2003 20:51:13 12.2 C 7.01 g/m*3 12.2 C 0 km/h
212 10-03-2003 21:03:13 11.8 C 6.95 g/m*3 11.8 C 0 km/h
213 10-03-2003 21:15:13 11.6 C 7.07 g/m*3 11.6 C 0 km/h
214 10-03-2003 21:27:13 11.5 C 7.02 g/m*3 11.5 C 0 km/h
215 10-03-2003 21:39:13 11.5 C 7.02 g/m*3 11.5 C 0 km/h
216 10-03-2003 21:51:13 11.8 C 7.05 g/m*3 11.8 C 0 km/h
217 10-03-2003 22:03:13 11.9 C 7.1 g/m*3 11.9 C 0 km/h
218 10-03-2003 22:15:13 11.3 C 6.94 g/m*3 11.3 C 0 km/h
219 10-03-2003 22:27:13 10.8 C 6.92 g/m*3 10.8 C 0 km/h
220 10-03-2003 22:39:13 10.7 C 6.97 g/m*3 10.7 C 0 km/h
221 10-03-2003 22:51:13 10.5 C 6.89 g/m*3 10.5 C 0 km/h
222 10-03-2003 23:03:13 10.5 C 6.98 g/m*3 10.5 C 0 km/h
223 10-03-2003 23:15:13 11 C 7.11 g/m*3 11 C 0 km/h
224 10-03-2003 23:27:13 10.8 C 7.02 g/m*3 10.8 C 0 km/h
225 10-03-2003 23:39:13 10.8 C 7.12 g/m*3 10.8 C 0 km/h
Sensor: Nr:Datum:Temp:Abs-Feuchte:Windchill:Wind:
Aussen-T/F 226 10-03-2003 23:51:13 10.8 C 7.12 g/m*3 10.8 C 0 km/h
227 11-03-2003 00:03:13 10.6 C 7.03 g/m*3 10.6 C 0 km/h
228 11-03-2003 00:15:13 10.7 C 7.07 g/m*3 10.7 C 0 km/h
229 11-03-2003 00:27:13 10.6 C 7.12 g/m*3 10.6 C 0 km/h
230 11-03-2003 00:39:13 10.5 C 6.98 g/m*3 10.5 C 0 km/h
231 11-03-2003 00:51:13 10.3 C 6.9 g/m*3 10.3 C 0 km/h
232 11-03-2003 01:03:13 10 C 6.86 g/m*3 10 C 0 km/h
233 11-03-2003 01:15:13 10.1 C 7 g/m*3 10.1 C 0 km/h
234 11-03-2003 01:27:13 10.1 C 7 g/m*3 10.1 C 0 km/h
235 11-03-2003 01:39:13 9.9 C 7 g/m*3 9.9 C 0 km/h
236 11-03-2003 01:51:13 9.8 C 6.96 g/m*3 9.8 C 0 km/h
237 11-03-2003 02:03:13 9.8 C 7.05 g/m*3 9.8 C 0 km/h
238 11-03-2003 02:15:13 9.9 C 7.19 g/m*3 9.9 C 0 km/h
239 11-03-2003 02:27:13 9.7 C 7.01 g/m*3 9.7 C 0 km/h
240 11-03-2003 02:39:13 9.5 C 6.92 g/m*3 9.5 C 0 km/h
241 11-03-2003 02:51:13 9.4 C 6.87 g/m*3 9.4 C 0 km/h
242 11-03-2003 03:03:13 9.2 C 6.79 g/m*3 9.2 C 0 km/h
243 11-03-2003 03:15:13 9.2 C 6.88 g/m*3 9.2 C 0 km/h
244 11-03-2003 03:27:13 9.1 C 6.83 g/m*3 9.1 C 0 km/h
245 11-03-2003 03:39:13 9.1 C 6.83 g/m*3 9.1 C 0 km/h
246 11-03-2003 03:51:13 9 C 6.79 g/m*3 9 C 0 km/h
247 11-03-2003 04:03:13 9 C 6.79 g/m*3 9 C 0 km/h
248 11-03-2003 04:15:13 8.9 C 6.83 g/m*3 8.9 C 0 km/h
249 11-03-2003 04:27:13 8.9 C 6.92 g/m*3 8.9 C 0 km/h
250 11-03-2003 04:39:13 8.9 C 6.92 g/m*3 8.9 C 0 km/h
Sensor: Nr:Datum:Temp:Abs-Feuchte:Windchill:Wind:
Aussen-T/F 251 11-03-2003 04:51:13 9 C 6.88 g/m*3 9 C 0 km/h
252 11-03-2003 05:03:13 9 C 6.88 g/m*3 9 C 0 km/h
253 11-03-2003 05:15:13 8.9 C 6.92 g/m*3 8.9 C 0 km/h
254 11-03-2003 05:27:13 9 C 6.96 g/m*3 9 C 0 km/h
255 11-03-2003 05:39:13 9.3 C 7.1 g/m*3 9.3 C 0 km/h
256 11-03-2003 05:51:13 9.5 C 7.1 g/m*3 9.5 C 0 km/h
257 11-03-2003 06:03:13 9.5 C 7.1 g/m*3 9.5 C 0 km/h
258 11-03-2003 06:15:13 9.3 C 7.01 g/m*3 9.3 C 0 km/h
259 11-03-2003 06:27:13 9.6 C 7.15 g/m*3 9.6 C 0 km/h
260 11-03-2003 06:39:13 9.6 C 7.15 g/m*3 9.6 C 0 km/h
261 11-03-2003 06:51:13 9.3 C 6.92 g/m*3 9.3 C 0 km/h
262 11-03-2003 07:03:13 8.9 C 7.01 g/m*3 8.9 C 0 km/h
263 11-03-2003 07:15:13 8.8 C 7.05 g/m*3 8.8 C 0 km/h
264 11-03-2003 07:27:13 8.9 C 7.18 g/m*3 8.9 C 0 km/h
265 11-03-2003 07:39:13 9 C 7.05 g/m*3 9 C 0 km/h
266 11-03-2003 07:51:13 9.2 C 7.14 g/m*3 9.2 C 0 km/h
267 11-03-2003 08:03:13 9.3 C 7.1 g/m*3 9.3 C 0 km/h
268 11-03-2003 08:15:13 9.5 C 7.1 g/m*3 9.5 C 0 km/h
269 11-03-2003 08:27:13 9.6 C 7.15 g/m*3 9.6 C 0 km/h
270 11-03-2003 08:39:13 9.7 C 7.1 g/m*3 9.7 C 0 km/h
271 11-03-2003 08:51:13 9.9 C 7.19 g/m*3 9.9 C 0 km/h
272 11-03-2003 09:03:12 9.8 C 7.05 g/m*3 9.8 C 0 km/h
273 11-03-2003 09:15:12 10.3 C 7.09 g/m*3 10.3 C 0 km/h
274 11-03-2003 09:27:12 10.7 C 7.27 g/m*3 10.7 C 0 km/h
275 11-03-2003 09:39:12 10.7 C 7.17 g/m*3 10.7 C 0 km/h
Sensor: Nr:Datum:Temp:Abs-Feuchte:Windchill:Wind:
Aussen-T/F 276 11-03-2003 09:51:12 11 C 7.21 g/m*3 11 C 0 km/h
277 11-03-2003 10:03:12 11.4 C 7.29 g/m*3 11.4 C 0 km/h
278 11-03-2003 10:15:12 11.6 C 7.17 g/m*3 11.6 C 0 km/h
279 11-03-2003 10:27:12 12.6 C 7.41 g/m*3 12.6 C 0 km/h
280 11-03-2003 10:39:12 13 C 7.03 g/m*3 13 C 0 km/h
281 11-03-2003 10:51:12 13.3 C 6.93 g/m*3 13.3 C 0 km/h
282 11-03-2003 11:03:13 13.9 C 6.35 g/m*3 13.9 C 0 km/h
283 11-03-2003 11:15:13 14.2 C 6.11 g/m*3 14.2 C 0 km/h
284 11-03-2003 11:27:13 14.8 C 5.83 g/m*3 14.8 C 0 km/h
285 11-03-2003 11:39:13 15.5 C 5.29 g/m*3 15.5 C 0 km/h
286 11-03-2003 11:51:13 16 C 5.04 g/m*3 16 C 0 km/h
287 11-03-2003 12:03:13 16 C 5.18 g/m*3 16 C 0 km/h
288 11-03-2003 12:15:13 16.2 C 5.1 g/m*3 16.2 C 0 km/h
289 11-03-2003 12:27:13 16.2 C 5.1 g/m*3 16.2 C 0 km/h
290 11-03-2003 12:39:13 16.2 C 5.1 g/m*3 16.2 C 0 km/h
291 11-03-2003 12:51:13 16.2 C 5.24 g/m*3 16.2 C 0 km/h
292 11-03-2003 13:03:51 16.4 C 5.3 g/m*3 16.4 C 0 km/h
293 11-03-2003 13:15:51 16.7 C 5.54 g/m*3 16.7 C 0 km/h
294 11-03-2003 13:27:51 16.7 C 5.54 g/m*3 16.7 C 0 km/h
295 11-03-2003 13:39:51 16.7 C 5.68 g/m*3 16.7 C 0 km/h
296 11-03-2003 13:51:51 16.5 C 5.76 g/m*3 16.5 C 0 km/h
297 11-03-2003 14:03:13 16.5 C 5.76 g/m*3 16.5 C 0 km/h
298 11-03-2003 14:15:13 16.3 C 5.97 g/m*3 16.3 C 0 km/h
299 11-03-2003 14:27:13 16.2 C 6.21 g/m*3 16.2 C 0 km/h
300 11-03-2003 14:39:13 16.2 C 6.34 g/m*3 16.2 C 0 km/h
Sensor: Nr:Datum:Temp:Abs-Feuchte:Windchill:Wind:
Aussen-T/F 301 11-03-2003 14:51:13 16.4 C 6.56 g/m*3 16.4 C 0 km/h
302 11-03-2003 15:03:12 16.3 C 6.38 g/m*3 16.3 C 0 km/h
303 11-03-2003 15:15:12 16.3 C 6.38 g/m*3 16.3 C 0 km/h
304 11-03-2003 15:27:12 16.4 C 6.28 g/m*3 16.4 C 0 km/h
305 11-03-2003 15:39:12 16.2 C 6.48 g/m*3 16.2 C 0 km/h
306 11-03-2003 15:51:12 16 C 6.4 g/m*3 16 C 0 km/h
307 11-03-2003 16:03:12 16 C 6.4 g/m*3 16 C 0 km/h
308 11-03-2003 16:15:12 15.7 C 6.56 g/m*3 15.7 C 0 km/h
309 11-03-2003 16:27:12 15.6 C 6.65 g/m*3 15.6 C 0 km/h
310 11-03-2003 16:39:12 15.8 C 6.6 g/m*3 15.8 C 0 km/h
311 11-03-2003 16:51:12 15.6 C 6.78 g/m*3 15.6 C 0 km/h
312 11-03-2003 17:03:13 15.2 C 7.01 g/m*3 15.2 C 0 km/h
313 11-03-2003 17:15:13 14.7 C 7.3 g/m*3 14.7 C 0 km/h
314 11-03-2003 17:27:13 14.5 C 7.34 g/m*3 14.5 C 0 km/h
315 11-03-2003 17:39:13 13.9 C 7.67 g/m*3 13.9 C 0 km/h
316 11-03-2003 17:51:13 13.2 C 7.69 g/m*3 13.2 C 0 km/h
317 11-03-2003 18:03:13 12.7 C 7.68 g/m*3 12.7 C 0 km/h
318 11-03-2003 18:15:13 12.9 C 7.78 g/m*3 12.9 C 0 km/h
319 11-03-2003 18:27:13 13.3 C 7.39 g/m*3 13.3 C 0 km/h
320 11-03-2003 18:39:13 13.9 C 7.31 g/m*3 13.9 C 0 km/h
321 11-03-2003 18:51:13 13.9 C 7.19 g/m*3 13.9 C 0 km/h
322 11-03-2003 19:03:13 13.8 C 7.27 g/m*3 13.8 C 0 km/h
323 11-03-2003 19:15:13 13.4 C 7.21 g/m*3 13.4 C 0 km/h
324 11-03-2003 19:27:13 13.2 C 7.23 g/m*3 13.2 C 0 km/h
325 11-03-2003 19:39:13 13 C 7.26 g/m*3 13 C 0 km/h
Sensor: Nr:Datum:Temp:Abs-Feuchte:Windchill:Wind:
Aussen-T/F 326 11-03-2003 19:51:13 12.7 C 7.46 g/m*3 12.7 C 0 km/h
327 11-03-2003 20:03:12 12.5 C 7.37 g/m*3 12.5 C 0 km/h
328 11-03-2003 20:15:12 12.4 C 7.32 g/m*3 12.4 C 0 km/h
329 11-03-2003 20:27:12 12.3 C 7.38 g/m*3 12.3 C 0 km/h
330 11-03-2003 20:39:12 12.1 C 7.29 g/m*3 12.1 C 0 km/h
331 11-03-2003 20:51:12 12 C 7.25 g/m*3 12 C 0 km/h
332 11-03-2003 21:03:13 11.8 C 7.26 g/m*3 11.8 C 0 km/h
333 11-03-2003 21:15:13 11.8 C 7.26 g/m*3 11.8 C 0 km/h
334 11-03-2003 21:27:13 11.8 C 7.26 g/m*3 11.8 C 0 km/h
335 11-03-2003 21:39:13 12 C 7.03 g/m*3 12 C 0 km/h
336 11-03-2003 21:51:13 12 C 6.93 g/m*3 12 C 0 km/h
337 11-03-2003 22:04:12 12.6 C 6.86 g/m*3 12.6 C 0 km/h
338 11-03-2003 22:16:12 12.7 C 6.9 g/m*3 12.7 C 0 km/h
339 11-03-2003 22:28:12 13.2 C 6.66 g/m*3 13.2 C 0 km/h
340 11-03-2003 22:40:12 13.6 C 6.59 g/m*3 13.6 C 0 km/h
341 11-03-2003 22:52:12 13.6 C 6.47 g/m*3 13.6 C 0 km/h
342 11-03-2003 23:04:12 13.4 C 6.51 g/m*3 13.4 C 0 km/h
343 11-03-2003 23:16:12 13.3 C 6.47 g/m*3 13.3 C 0 km/h
344 11-03-2003 23:28:12 13.2 C 6.54 g/m*3 13.2 C 0 km/h
345 11-03-2003 23:40:12 13 C 6.46 g/m*3 13 C 0 km/h
346 11-03-2003 23:52:12 12.7 C 6.68 g/m*3 12.7 C 0 km/h
347 12-03-2003 00:04:12 12.5 C 7.15 g/m*3 12.5 C 0 km/h
348 12-03-2003 00:16:12 12.4 C 7.76 g/m*3 12.4 C 0 km/h
349 12-03-2003 00:28:12 12 C 7.78 g/m*3 12 C 0 km/h
350 12-03-2003 00:40:12 11.8 C 7.79 g/m*3 11.8 C 0 km/h
Sensor: Nr:Datum:Temp:Abs-Feuchte:Windchill:Wind:
Aussen-T/F 351 12-03-2003 00:52:12 11.5 C 7.54 g/m*3 11.5 C 0 km/h
352 12-03-2003 01:04:12 10.8 C 7.51 g/m*3 10.8 C 0 km/h
353 12-03-2003 01:16:12 9.7 C 7.38 g/m*3 9.7 C 0 km/h
354 12-03-2003 01:28:12 9.3 C 7.37 g/m*3 9.3 C 0 km/h
355 12-03-2003 01:40:12 9.3 C 7.46 g/m*3 9.3 C 0 km/h
356 12-03-2003 02:04:12 9 C 7.23 g/m*3 9 C 0 km/h
357 12-03-2003 02:16:12 8.9 C 7.27 g/m*3 8.9 C 0 km/h
358 12-03-2003 02:28:12 8.6 C 6.7 g/m*3 8.6 C 0 km/h
359 12-03-2003 02:40:12 8.3 C 6.57 g/m*3 8.3 C 0 km/h
360 12-03-2003 02:52:12 8.2 C 6.62 g/m*3 8.2 C 0 km/h
361 12-03-2003 03:04:12 8.2 C 6.62 g/m*3 8.2 C 0 km/h
362 12-03-2003 03:16:12 8.3 C 6.41 g/m*3 8.3 C 0 km/h
363 12-03-2003 03:28:12 8.8 C 6.35 g/m*3 8.8 C 0 km/h
364 12-03-2003 03:40:12 9.1 C 6.12 g/m*3 9.1 C 0 km/h
365 12-03-2003 03:52:12 9 C 5.91 g/m*3 9 C 0 km/h
366 12-03-2003 04:04:12 9.2 C 5.8 g/m*3 9.2 C 0 km/h
367 12-03-2003 04:16:12 9.1 C 5.86 g/m*3 9.1 C 0 km/h
368 12-03-2003 04:28:12 9 C 5.91 g/m*3 9 C 0 km/h
369 12-03-2003 04:40:12 9 C 5.82 g/m*3 9 C 0 km/h
370 12-03-2003 04:52:12 9.2 C 5.89 g/m*3 9.2 C 0 km/h
371 12-03-2003 05:04:12 9.1 C 5.86 g/m*3 9.1 C 0 km/h
372 12-03-2003 05:16:12 9.1 C 5.86 g/m*3 9.1 C 0 km/h
373 12-03-2003 05:28:12 8.9 C 5.96 g/m*3 8.9 C 0 km/h
374 12-03-2003 05:40:12 8.7 C 6.05 g/m*3 8.7 C 0 km/h
375 12-03-2003 05:52:12 8.7 C 6.05 g/m*3 8.7 C 0 km/h
Sensor: Nr:Datum:Temp:Abs-Feuchte:Windchill:Wind:
Aussen-T/F 376 12-03-2003 06:04:12 8.7 C 6.05 g/m*3 8.7 C 0 km/h
377 12-03-2003 06:16:12 8.7 C 6.05 g/m*3 8.7 C 0 km/h
378 12-03-2003 06:28:12 8.6 C 6.1 g/m*3 8.6 C 0 km/h
379 12-03-2003 06:40:12 8.6 C 6.1 g/m*3 8.6 C 0 km/h
380 12-03-2003 06:52:12 8.6 C 6.1 g/m*3 8.6 C 0 km/h
381 12-03-2003 07:04:12 8.6 C 6.19 g/m*3 8.6 C 0 km/h
382 12-03-2003 07:16:12 8.6 C 6.19 g/m*3 8.6 C 0 km/h
383 12-03-2003 07:28:12 8.6 C 6.19 g/m*3 8.6 C 0 km/h
384 12-03-2003 07:40:12 8.7 C 6.23 g/m*3 8.7 C 0 km/h
385 12-03-2003 07:52:12 8.8 C 6.27 g/m*3 8.8 C 0 km/h
386 12-03-2003 08:04:12 8.9 C 6.31 g/m*3 8.9 C 0 km/h
387 12-03-2003 08:16:12 9 C 6.26 g/m*3 9 C 0 km/h
388 12-03-2003 08:28:12 9 C 6.17 g/m*3 9 C 0 km/h
389 12-03-2003 08:40:12 9 C 6.17 g/m*3 9 C 0 km/h
390 12-03-2003 08:52:12 9 C 6.17 g/m*3 9 C 0 km/h
391 12-03-2003 09:04:13 9.2 C 6.16 g/m*3 9.2 C 0 km/h
392 12-03-2003 09:16:13 9.6 C 6.23 g/m*3 9.6 C 0 km/h
393 12-03-2003 09:28:13 9.9 C 5.88 g/m*3 9.9 C 0 km/h
394 12-03-2003 09:40:13 9.9 C 5.42 g/m*3 9.9 C 0 km/h
395 12-03-2003 09:52:13 9.8 C 5.38 g/m*3 9.8 C 0 km/h
396 12-03-2003 10:04:12 9.8 C 5.29 g/m*3 9.8 C 0 km/h
397 12-03-2003 10:16:12 10 C 5.36 g/m*3 10 C 0 km/h
398 12-03-2003 10:28:12 10 C 5.26 g/m*3 10 C 0 km/h
399 12-03-2003 10:40:12 10 C 5.36 g/m*3 10 C 0 km/h
400 12-03-2003 10:52:12 9.8 C 5.38 g/m*3 9.8 C 0 km/h
Sensor: Nr:Datum:Temp:Abs-Feuchte:Windchill:Wind:
Aussen-T/F 401 12-03-2003 11:04:12 9.8 C 5.75 g/m*3 9.8 C 0 km/h
402 12-03-2003 11:16:12 9.9 C 5.6 g/m*3 9.9 C 0 km/h
403 12-03-2003 11:28:12 10.1 C 5.48 g/m*3 10.1 C 0 km/h
404 12-03-2003 11:40:12 10.1 C 5.67 g/m*3 10.1 C 0 km/h
405 12-03-2003 11:52:12 10.1 C 5.67 g/m*3 10.1 C 0 km/h
406 12-03-2003 12:04:13 9.9 C 5.88 g/m*3 9.9 C 0 km/h
407 12-03-2003 12:16:13 9.9 C 5.79 g/m*3 9.9 C 0 km/h
408 12-03-2003 12:28:13 9.9 C 5.51 g/m*3 9.9 C 0 km/h
409 12-03-2003 12:40:13 9.9 C 5.6 g/m*3 9.9 C 0 km/h
410 12-03-2003 12:52:13 9.7 C 5.44 g/m*3 9.7 C 0 km/h
411 12-03-2003 13:04:13 9.7 C 5.44 g/m*3 9.7 C 0 km/h
412 12-03-2003 13:16:13 9.9 C 5.51 g/m*3 9.9 C 0 km/h
413 12-03-2003 13:28:13 9.6 C 5.31 g/m*3 9.6 C 0 km/h
414 12-03-2003 13:40:13 9.6 C 5.4 g/m*3 9.6 C 0 km/h
415 12-03-2003 13:52:13 9.6 C 5.4 g/m*3 9.6 C 0 km/h
416 12-03-2003 14:04:12 9.8 C 5.38 g/m*3 9.8 C 0 km/h
417 12-03-2003 14:16:12 9.9 C 5.42 g/m*3 9.9 C 0 km/h
418 12-03-2003 14:28:12 10 C 5.26 g/m*3 10 C 0 km/h
419 12-03-2003 14:40:12 9.7 C 5.16 g/m*3 9.7 C 0 km/h
420 12-03-2003 14:52:12 10.1 C 5.11 g/m*3 10.1 C 0 km/h
421 12-03-2003 15:04:13 10 C 5.07 g/m*3 10 C 0 km/h
422 12-03-2003 15:16:13 9.8 C 5.01 g/m*3 9.8 C 0 km/h
423 12-03-2003 15:28:13 10 C 4.98 g/m*3 10 C 0 km/h
424 12-03-2003 15:40:13 10 C 4.89 g/m*3 10 C 0 km/h
425 12-03-2003 15:52:13 9.9 C 5.04 g/m*3 9.9 C 0 km/h
Sensor: Nr:Datum:Temp:Abs-Feuchte:Windchill:Wind:
Aussen-T/F 426 12-03-2003 16:04:12 9.8 C 5.1 g/m*3 9.8 C 0 km/h
427 12-03-2003 16:16:12 9.5 C 5.19 g/m*3 9.5 C 0 km/h
428 12-03-2003 16:28:12 9.1 C 5.5 g/m*3 9.1 C 0 km/h
429 12-03-2003 16:40:12 9.1 C 5.5 g/m*3 9.1 C 0 km/h
430 12-03-2003 16:52:12 9.2 C 5.54 g/m*3 9.2 C 0 km/h
431 12-03-2003 18:31:51 8.9 C 5.87 g/m*3 8.9 C 0 km/h
432 12-03-2003 18:43:11 8.8 C 5.83 g/m*3 8.8 C 0 km/h
433 12-03-2003 18:55:11 8.7 C 5.88 g/m*3 8.7 C 0 km/h
434 12-03-2003 19:26:45 8.4 C 6.02 g/m*3 8.4 C 0 km/h
435 12-03-2003 19:38:12 8.4 C 6.11 g/m*3 8.4 C 0 km/h
436 12-03-2003 19:50:12 8.3 C 6.07 g/m*3 8.3 C 0 km/h
437 12-03-2003 20:02:13 8.4 C 6.11 g/m*3 8.4 C 0 km/h
438 12-03-2003 20:14:13 8.4 C 6.11 g/m*3 8.4 C 0 km/h
439 12-03-2003 20:26:13 8.3 C 6.07 g/m*3 8.3 C 0 km/h
440 12-03-2003 20:38:13 8.1 C 6.07 g/m*3 8.1 C 0 km/h
441 12-03-2003 20:50:13 8.2 C 6.03 g/m*3 8.2 C 0 km/h
442 12-03-2003 21:03:12 8.3 C 5.65 g/m*3 8.3 C 0 km/h
443 12-03-2003 21:15:12 8.3 C 5.56 g/m*3 8.3 C 0 km/h
444 12-03-2003 21:27:12 8.2 C 5.53 g/m*3 8.2 C 0 km/h
445 12-03-2003 21:39:12 8.1 C 5.49 g/m*3 8.1 C 0 km/h
446 12-03-2003 21:51:12 8.1 C 5.49 g/m*3 8.1 C 0 km/h
447 12-03-2003 22:03:12 8 C 5.46 g/m*3 8 C 0 km/h
448 12-03-2003 22:15:12 7.9 C 5.5 g/m*3 7.9 C 0 km/h
449 12-03-2003 22:27:12 7.9 C 5.5 g/m*3 7.9 C 0 km/h
450 12-03-2003 22:51:12 7.8 C 5.47 g/m*3 7.8 C 0 km/h
Sensor: Nr:Datum:Temp:Abs-Feuchte:Windchill:Wind:
Aussen-T/F 451 12-03-2003 23:03:12 7.8 C 5.47 g/m*3 7.8 C 0 km/h
452 12-03-2003 23:15:12 7.7 C 5.43 g/m*3 7.7 C 0 km/h
453 12-03-2003 23:27:12 7.6 C 5.4 g/m*3 7.6 C 0 km/h
454 12-03-2003 23:39:12 7.6 C 5.48 g/m*3 7.6 C 0 km/h
455 12-03-2003 23:51:12 7.6 C 5.48 g/m*3 7.6 C 0 km/h
456 13-03-2003 00:03:12 7.5 C 5.44 g/m*3 7.5 C 0 km/h
457 13-03-2003 00:15:12 7.5 C 5.44 g/m*3 7.5 C 0 km/h
458 13-03-2003 00:27:12 7.5 C 5.44 g/m*3 7.5 C 0 km/h
459 13-03-2003 00:39:12 7.5 C 5.44 g/m*3 7.5 C 0 km/h
460 13-03-2003 00:51:12 7.5 C 5.52 g/m*3 7.5 C 0 km/h
461 13-03-2003 01:03:12 7.4 C 5.57 g/m*3 7.4 C 0 km/h
462 13-03-2003 01:15:12 7.4 C 5.57 g/m*3 7.4 C 0 km/h
463 13-03-2003 01:27:12 7.4 C 5.65 g/m*3 7.4 C 0 km/h
464 13-03-2003 01:39:12 7.3 C 5.69 g/m*3 7.3 C 0 km/h
465 13-03-2003 01:51:12 7.1 C 5.62 g/m*3 7.1 C 0 km/h
466 13-03-2003 02:03:12 7.1 C 5.69 g/m*3 7.1 C 0 km/h
467 13-03-2003 02:15:12 7.1 C 5.69 g/m*3 7.1 C 0 km/h
468 13-03-2003 02:27:12 7.1 C 5.69 g/m*3 7.1 C 0 km/h
469 13-03-2003 02:39:12 7 C 5.66 g/m*3 7 C 0 km/h
470 13-03-2003 02:51:12 7 C 5.66 g/m*3 7 C 0 km/h
471 13-03-2003 03:03:12 7 C 5.66 g/m*3 7 C 0 km/h
472 13-03-2003 03:15:12 6.9 C 5.7 g/m*3 6.9 C 0 km/h
473 13-03-2003 03:27:12 6.9 C 5.7 g/m*3 6.9 C 0 km/h
474 13-03-2003 03:39:12 6.8 C 5.66 g/m*3 6.8 C 0 km/h
475 13-03-2003 03:51:12 6.6 C 5.59 g/m*3 6.6 C 0 km/h
Sensor: Nr:Datum:Temp:Abs-Feuchte:Windchill:Wind:
Aussen-T/F 476 13-03-2003 04:03:12 6.7 C 5.62 g/m*3 6.7 C 0 km/h
477 13-03-2003 04:15:12 6 C 5.44 g/m*3 6 C 0 km/h
478 13-03-2003 04:27:12 5.4 C 5.37 g/m*3 5.4 C 0 km/h
479 13-03-2003 04:39:12 5 C 5.3 g/m*3 5 C 0 km/h
480 13-03-2003 04:51:12 4.8 C 5.36 g/m*3 4.8 C 0 km/h
481 13-03-2003 05:03:12 4.6 C 5.36 g/m*3 4.6 C 0 km/h
482 13-03-2003 05:15:12 4.7 C 5.46 g/m*3 4.7 C 0 km/h
483 13-03-2003 05:27:12 4.5 C 5.32 g/m*3 4.5 C 0 km/h
484 13-03-2003 05:39:12 4.5 C 5.39 g/m*3 4.5 C 0 km/h
485 13-03-2003 05:51:12 4.2 C 5.28 g/m*3 4.2 C 0 km/h
486 13-03-2003 06:03:12 4 C 5.21 g/m*3 4 C 0 km/h
487 13-03-2003 06:15:12 3.7 C 5.17 g/m*3 3.7 C 0 km/h
488 13-03-2003 06:27:12 3.7 C 5.17 g/m*3 3.7 C 0 km/h
489 13-03-2003 06:39:12 3.4 C 5.01 g/m*3 3.4 C 0 km/h
490 13-03-2003 06:51:12 3.1 C 4.91 g/m*3 3.1 C 0 km/h
491 13-03-2003 07:03:12 2.9 C 4.9 g/m*3 2.9 C 0 km/h
492 13-03-2003 07:15:12 2.8 C 4.87 g/m*3 2.8 C 0 km/h
493 13-03-2003 07:27:12 2.8 C 4.87 g/m*3 2.8 C 0 km/h
494 13-03-2003 07:39:12 2.8 C 4.87 g/m*3 2.8 C 0 km/h
495 13-03-2003 07:51:12 2.8 C 4.87 g/m*3 2.8 C 0 km/h
496 13-03-2003 08:03:12 2.7 C 4.84 g/m*3 2.7 C 0 km/h
497 13-03-2003 08:15:12 2.8 C 4.87 g/m*3 2.8 C 0 km/h
498 13-03-2003 08:27:12 3.3 C 4.73 g/m*3 3.3 C 0 km/h
499 13-03-2003 08:39:12 3.4 C 4.58 g/m*3 3.4 C 0 km/h
500 13-03-2003 08:51:12 3.5 C 4.49 g/m*3 3.5 C 0 km/h
Sensor: Nr:Datum:Temp:Abs-Feuchte:Windchill:Wind:
Aussen-T/F 501 13-03-2003 09:03:13 3.8 C 4.45 g/m*3 3.8 C 0 km/h
502 13-03-2003 09:15:13 4.5 C 4.4 g/m*3 4.5 C 0 km/h
503 13-03-2003 09:27:13 4.9 C 4.19 g/m*3 4.9 C 0 km/h
504 13-03-2003 09:39:13 5.3 C 3.81 g/m*3 5.3 C 0 km/h
505 13-03-2003 09:51:13 5.7 C 3.84 g/m*3 5.7 C 0 km/h
506 13-03-2003 10:03:13 6 C 3.63 g/m*3 6 C 0 km/h
507 13-03-2003 10:15:13 6.4 C 3.65 g/m*3 6.4 C 0 km/h
508 13-03-2003 10:27:13 6.7 C 3.65 g/m*3 6.7 C 0 km/h
509 13-03-2003 10:39:13 6.7 C 3.42 g/m*3 6.7 C 0 km/h
510 13-03-2003 10:51:13 7.1 C 3.43 g/m*3 7.1 C 0 km/h
511 13-03-2003 11:03:13 7.2 C 3.38 g/m*3 7.2 C 0 km/h
512 13-03-2003 11:15:13 7.6 C 3.46 g/m*3 7.6 C 0 km/h
513 13-03-2003 11:27:13 8.1 C 3.58 g/m*3 8.1 C 0 km/h
514 13-03-2003 11:39:13 8.5 C 3.42 g/m*3 8.5 C 0 km/h
515 13-03-2003 11:51:13 9 C 3.53 g/m*3 9 C 0 km/h
516 13-03-2003 12:03:13 9.2 C 3.3 g/m*3 9.2 C 0 km/h
517 13-03-2003 12:15:13 9 C 3.17 g/m*3 9 C 0 km/h
518 13-03-2003 12:27:13 10.3 C 3.45 g/m*3 10.3 C 0 km/h
519 13-03-2003 12:39:13 10.5 C 3.3 g/m*3 10.5 C 0 km/h
520 13-03-2003 12:51:13 10.4 C 3.08 g/m*3 10.4 C 0 km/h
521 13-03-2003 13:03:13 10.7 C 3.14 g/m*3 10.7 C 0 km/h
522 13-03-2003 13:15:13 11 C 3.2 g/m*3 11 C 0 km/h
523 13-03-2003 13:27:13 11.1 C 3.12 g/m*3 11.1 C 0 km/h
524 13-03-2003 13:39:13 11.5 C 3.2 g/m*3 11.5 C 0 km/h
525 13-03-2003 13:51:13 12.2 C 3.13 g/m*3 12.2 C 0 km/h
Sensor: Nr:Datum:Temp:Abs-Feuchte:Windchill:Wind:
Aussen-T/F 526 13-03-2003 14:03:13 12.3 C 3.04 g/m*3 12.3 C 0 km/h
527 13-03-2003 14:15:13 13 C 2.95 g/m*3 13 C 0 km/h
528 13-03-2003 14:27:13 12.7 C 2.78 g/m*3 12.7 C 0 km/h
529 13-03-2003 14:39:13 12.6 C 2.88 g/m*3 12.6 C 0 km/h
530 13-03-2003 14:51:13 13.1 C 2.85 g/m*3 13.1 C 0 km/h
531 13-03-2003 15:03:13 13 C 2.49 g/m*3 13 C 0 km/h
532 13-03-2003 15:15:13 13.6 C 2.71 g/m*3 13.6 C 0 km/h
533 13-03-2003 15:27:13 13.7 C 2.37 g/m*3 13.7 C 0 km/h
534 13-03-2003 15:39:13 14.2 C 2.56 g/m*3 14.2 C 0 km/h
535 13-03-2003 15:51:13 14.4 C 2.72 g/m*3 14.4 C 0 km/h
536 13-03-2003 16:03:13 14.8 C 2.66 g/m*3 14.8 C 0 km/h
537 13-03-2003 16:15:13 13.9 C 2.4 g/m*3 13.9 C 0 km/h
538 13-03-2003 16:27:13 14.7 C 2.52 g/m*3 14.7 C 0 km/h
539 13-03-2003 16:39:13 14.7 C 2.52 g/m*3 14.7 C 0 km/h
540 13-03-2003 16:51:13 15.1 C 2.58 g/m*3 15.1 C 0 km/h
541 13-03-2003 17:03:14 14.9 C 2.55 g/m*3 14.9 C 0 km/h
542 13-03-2003 17:15:14 14.7 C 2.52 g/m*3 14.7 C 0 km/h
543 13-03-2003 17:27:14 14.2 C 2.44 g/m*3 14.2 C 0 km/h
544 13-03-2003 17:39:14 13.8 C 2.38 g/m*3 13.8 C 0 km/h
545 13-03-2003 17:51:14 13.2 C 2.3 g/m*3 13.2 C 0 km/h
546 13-03-2003 18:03:13 12.1 C 2.57 g/m*3 12.1 C 0 km/h
547 13-03-2003 18:15:13 11.2 C 2.64 g/m*3 11.2 C 0 km/h
548 13-03-2003 18:27:13 10.2 C 2.85 g/m*3 10.2 C 0 km/h
549 13-03-2003 18:39:13 9.3 C 2.97 g/m*3 9.3 C 0 km/h
550 13-03-2003 18:51:13 8.5 C 3.16 g/m*3 8.5 C 0 km/h
Sensor: Nr:Datum:Temp:Abs-Feuchte:Windchill:Wind:
Aussen-T/F 551 13-03-2003 19:03:13 7.9 C 3.45 g/m*3 7.9 C 0 km/h
552 13-03-2003 19:15:13 7.3 C 3.4 g/m*3 7.3 C 0 km/h
553 13-03-2003 19:27:13 7.1 C 3.51 g/m*3 7.1 C 0 km/h
554 13-03-2003 19:39:13 6.7 C 3.5 g/m*3 6.7 C 0 km/h
555 13-03-2003 19:51:13 6.4 C 3.5 g/m*3 6.4 C 0 km/h
556 13-03-2003 20:03:14 6 C 3.56 g/m*3 6 C 0 km/h
557 13-03-2003 20:15:14 5.8 C 3.65 g/m*3 5.8 C 0 km/h
558 13-03-2003 20:27:14 5.6 C 3.75 g/m*3 5.6 C 0 km/h
559 13-03-2003 20:39:14 5.5 C 3.72 g/m*3 5.5 C 0 km/h
560 13-03-2003 20:51:14 5.3 C 3.74 g/m*3 5.3 C 0 km/h
561 13-03-2003 21:04:13 5 C 3.6 g/m*3 5 C 0 km/h
562 13-03-2003 21:16:13 4.9 C 3.78 g/m*3 4.9 C 0 km/h
563 13-03-2003 21:28:13 4.8 C 3.69 g/m*3 4.8 C 0 km/h
564 13-03-2003 21:40:13 4.5 C 3.68 g/m*3 4.5 C 0 km/h
565 13-03-2003 21:52:13 4.4 C 3.72 g/m*3 4.4 C 0 km/h
566 13-03-2003 22:04:13 3.9 C 3.73 g/m*3 3.9 C 0 km/h
567 13-03-2003 22:16:13 3.9 C 3.73 g/m*3 3.9 C 0 km/h
568 13-03-2003 22:28:13 3.7 C 3.61 g/m*3 3.7 C 0 km/h
569 13-03-2003 22:40:13 3.4 C 3.66 g/m*3 3.4 C 0 km/h
570 13-03-2003 22:52:13 3.2 C 3.62 g/m*3 3.2 C 0 km/h
571 13-03-2003 23:04:13 3.1 C 3.71 g/m*3 3.1 C 0 km/h
572 13-03-2003 23:16:13 2.9 C 3.84 g/m*3 2.9 C 0 km/h
573 13-03-2003 23:28:13 2.7 C 3.85 g/m*3 2.7 C 0 km/h
574 13-03-2003 23:40:13 2.4 C 3.71 g/m*3 2.4 C 0 km/h
575 13-03-2003 23:52:13 2.1 C 3.69 g/m*3 2.1 C 0 km/h
Sensor: Nr:Datum:Temp:Abs-Feuchte:Windchill:Wind:
Aussen-T/F 576 14-03-2003 00:04:13 2 C 3.72 g/m*3 2 C 0 km/h
577 14-03-2003 00:16:13 2 C 3.72 g/m*3 2 C 0 km/h
578 14-03-2003 00:28:13 1.9 C 3.7 g/m*3 1.9 C 0 km/h
579 14-03-2003 00:40:13 1.6 C 3.62 g/m*3 1.6 C 0 km/h
580 14-03-2003 00:52:13 1.5 C 3.65 g/m*3 1.5 C 0 km/h
581 14-03-2003 01:04:13 1.5 C 3.6 g/m*3 1.5 C 0 km/h
582 14-03-2003 01:16:13 1.3 C 3.44 g/m*3 1.3 C 0 km/h
583 14-03-2003 01:28:13 1.4 C 3.36 g/m*3 1.4 C 0 km/h
584 14-03-2003 01:40:13 1.3 C 3.23 g/m*3 1.3 C 0 km/h
585 14-03-2003 01:52:13 1.4 C 3.15 g/m*3 1.4 C 0 km/h
586 14-03-2003 02:04:13 1.3 C 3.07 g/m*3 1.3 C 0 km/h
587 14-03-2003 02:16:13 1.2 C 3.05 g/m*3 1.2 C 0 km/h
588 14-03-2003 02:28:13 1.1 C 2.98 g/m*3 1.1 C 0 km/h
589 14-03-2003 02:40:13 1 C 3.01 g/m*3 1 C 0 km/h
590 14-03-2003 02:52:13 0.8 C 3.07 g/m*3 0.8 C 0 km/h
591 14-03-2003 03:04:13 0.7 C 3.1 g/m*3 0.7 C 0 km/h
592 14-03-2003 03:16:13 0.5 C 3.11 g/m*3 0.5 C 0 km/h
593 14-03-2003 03:28:13 0.3 C 3.17 g/m*3 0.3 C 0 km/h
594 14-03-2003 03:40:13 0.3 C 3.26 g/m*3 0.3 C 0 km/h
595 14-03-2003 03:52:13 0.1 C 3.27 g/m*3 0.1 C 0 km/h
596 14-03-2003 04:04:13 0.1 C 3.32 g/m*3 0.1 C 0 km/h
597 14-03-2003 04:16:13 -0.2 C 3.3 g/m*3 -0.2 C 0 km/h
598 14-03-2003 04:28:13 -0.2 C 3.25 g/m*3 -0.2 C 0 km/h
599 14-03-2003 04:40:13 -0.4 C 3.25 g/m*3 -0.4 C 0 km/h
600 14-03-2003 04:52:13 -0.5 C 3.18 g/m*3 -0.5 C 0 km/h
Sensor: Nr:Datum:Temp:Abs-Feuchte:Windchill:Wind:
Aussen-T/F 601 14-03-2003 05:04:13 -0.7 C 3.23 g/m*3 -0.7 C 0 km/h
602 14-03-2003 05:16:13 -0.9 C 3.19 g/m*3 -0.9 C 0 km/h
603 14-03-2003 05:28:13 -1 C 3.16 g/m*3 -1 C 0 km/h
604 14-03-2003 05:40:13 -1.2 C 3.12 g/m*3 -1.2 C 0 km/h
605 14-03-2003 05:52:13 -1.3 C 3.14 g/m*3 -1.3 C 0 km/h
606 14-03-2003 06:04:13 -1.3 C 3.14 g/m*3 -1.3 C 0 km/h
607 14-03-2003 06:16:13 -1.3 C 3.14 g/m*3 -1.3 C 0 km/h
608 14-03-2003 06:28:13 -1.7 C 3.1 g/m*3 -1.7 C 0 km/h
609 14-03-2003 06:40:13 -1.7 C 3.19 g/m*3 -1.7 C 0 km/h
610 14-03-2003 06:52:13 -1.7 C 3.14 g/m*3 -1.7 C 0 km/h
611 14-03-2003 07:04:13 -2 C 3.12 g/m*3 -2 C 0 km/h
612 14-03-2003 07:16:13 -2 C 3.16 g/m*3 -2 C 0 km/h
613 14-03-2003 07:28:13 -2.1 C 3.18 g/m*3 -2.1 C 0 km/h
614 14-03-2003 07:40:13 -2 C 3.25 g/m*3 -2 C 0 km/h
615 14-03-2003 07:52:13 -1.9 C 3.27 g/m*3 -1.9 C 0 km/h
616 14-03-2003 08:04:14 -1.7 C 3.31 g/m*3 -1.7 C 0 km/h
617 14-03-2003 08:16:14 -1.6 C 3.34 g/m*3 -1.6 C 0 km/h
618 14-03-2003 08:28:14 -1.3 C 3.28 g/m*3 -1.3 C 0 km/h
619 14-03-2003 08:40:14 -1 C 3.25 g/m*3 -1 C 0 km/h
620 14-03-2003 08:52:14 -0.7 C 3.28 g/m*3 -0.7 C 0 km/h
621 14-03-2003 09:04:13 -0.4 C 3.25 g/m*3 -0.4 C 0 km/h
622 14-03-2003 09:16:13 0.3 C 3.31 g/m*3 0.3 C 0 km/h
623 14-03-2003 09:28:13 0.8 C 3.38 g/m*3 0.8 C 0 km/h
624 14-03-2003 09:40:13 1.6 C 3.41 g/m*3 1.6 C 0 km/h
625 14-03-2003 09:52:13 2.3 C 3.4 g/m*3 2.3 C 0 km/h
Sensor: Nr:Datum:Temp:Abs-Feuchte:Windchill:Wind:
Aussen-T/F 626 14-03-2003 10:04:12 3 C 3.33 g/m*3 3 C 0 km/h
627 14-03-2003 10:16:12 3.8 C 3.26 g/m*3 3.8 C 0 km/h
628 14-03-2003 10:28:12 4.6 C 3.24 g/m*3 4.6 C 0 km/h
629 14-03-2003 10:40:12 5.2 C 3.31 g/m*3 5.2 C 0 km/h
630 14-03-2003 10:52:12 5.9 C 3.39 g/m*3 5.9 C 0 km/h
631 14-03-2003 11:04:13 6.4 C 3.28 g/m*3 6.4 C 0 km/h
632 14-03-2003 11:16:13 7.2 C 3.14 g/m*3 7.2 C 0 km/h
633 14-03-2003 11:28:13 7.9 C 3.12 g/m*3 7.9 C 0 km/h
634 14-03-2003 11:40:13 8.3 C 3.03 g/m*3 8.3 C 0 km/h
635 14-03-2003 11:52:13 8.7 C 3.03 g/m*3 8.7 C 0 km/h
636 14-03-2003 12:04:13 9.6 C 3.21 g/m*3 9.6 C 0 km/h
637 14-03-2003 12:16:13 10.1 C 3.03 g/m*3 10.1 C 0 km/h
638 14-03-2003 12:28:13 10.3 C 2.87 g/m*3 10.3 C 0 km/h
639 14-03-2003 12:40:13 10.6 C 2.93 g/m*3 10.6 C 0 km/h
640 14-03-2003 12:52:13 10.7 C 2.95 g/m*3 10.7 C 0 km/h
641 14-03-2003 13:04:13 10.8 C 3.06 g/m*3 10.8 C 0 km/h
642 14-03-2003 13:16:13 11.1 C 3.12 g/m*3 11.1 C 0 km/h
643 14-03-2003 13:28:13 11.5 C 3 g/m*3 11.5 C 0 km/h
644 14-03-2003 13:40:13 11.8 C 3.05 g/m*3 11.8 C 0 km/h
645 14-03-2003 13:52:13 12.2 C 3.13 g/m*3 12.2 C 0 km/h
646 14-03-2003 14:04:13 12.5 C 3.08 g/m*3 12.5 C 0 km/h
647 14-03-2003 14:16:13 12.6 C 2.88 g/m*3 12.6 C 0 km/h
648 14-03-2003 14:28:13 13.1 C 2.97 g/m*3 13.1 C 0 km/h
649 14-03-2003 14:40:13 13.3 C 3 g/m*3 13.3 C 0 km/h
650 14-03-2003 14:52:13 13.5 C 3.04 g/m*3 13.5 C 0 km/h
Sensor: Nr:Datum:Temp:Abs-Feuchte:Windchill:Wind:
Aussen-T/F 651 14-03-2003 15:04:13 13.6 C 2.94 g/m*3 13.6 C 0 km/h
652 14-03-2003 15:16:13 13.6 C 2.94 g/m*3 13.6 C 0 km/h
653 14-03-2003 15:28:13 13.9 C 2.76 g/m*3 13.9 C 0 km/h
654 14-03-2003 15:40:13 13.5 C 2.69 g/m*3 13.5 C 0 km/h
655 14-03-2003 15:52:13 13.8 C 2.98 g/m*3 13.8 C 0 km/h
656 14-03-2003 16:04:13 13.2 C 2.76 g/m*3 13.2 C 0 km/h
657 14-03-2003 16:16:13 13.3 C 2.89 g/m*3 13.3 C 0 km/h
658 14-03-2003 16:28:13 13.2 C 2.99 g/m*3 13.2 C 0 km/h
659 14-03-2003 16:40:13 13.1 C 2.97 g/m*3 13.1 C 0 km/h
660 14-03-2003 16:52:13 13 C 2.95 g/m*3 13 C 0 km/h
661 14-03-2003 17:04:14 12.7 C 3.12 g/m*3 12.7 C 0 km/h
662 14-03-2003 17:16:14 11.9 C 3.18 g/m*3 11.9 C 0 km/h
663 14-03-2003 17:28:14 11.6 C 3.22 g/m*3 11.6 C 0 km/h
664 14-03-2003 17:40:14 10.8 C 3.16 g/m*3 10.8 C 0 km/h
665 14-03-2003 17:52:14 10.4 C 3.18 g/m*3 10.4 C 0 km/h
666 14-03-2003 18:04:13 9.8 C 3.34 g/m*3 9.8 C 0 km/h
667 14-03-2003 18:16:13 9.3 C 3.33 g/m*3 9.3 C 0 km/h
668 14-03-2003 18:28:13 8.2 C 3.35 g/m*3 8.2 C 0 km/h
669 14-03-2003 18:40:13 7.4 C 3.34 g/m*3 7.4 C 0 km/h
670 14-03-2003 18:52:13 7 C 3.49 g/m*3 7 C 0 km/h
671 14-03-2003 19:04:14 6.6 C 3.47 g/m*3 6.6 C 0 km/h
672 14-03-2003 19:16:14 6.2 C 3.53 g/m*3 6.2 C 0 km/h
673 14-03-2003 19:28:14 6 C 3.56 g/m*3 6 C 0 km/h
674 14-03-2003 19:40:14 5.4 C 3.56 g/m*3 5.4 C 0 km/h
675 14-03-2003 19:52:14 5 C 3.53 g/m*3 5 C 0 km/h
Sensor: Nr:Datum:Temp:Abs-Feuchte:Windchill:Wind:
Aussen-T/F 676 14-03-2003 20:04:13 4.7 C 3.6 g/m*3 4.7 C 0 km/h
677 14-03-2003 20:16:13 4.5 C 3.62 g/m*3 4.5 C 0 km/h
678 14-03-2003 20:28:13 4.1 C 3.52 g/m*3 4.1 C 0 km/h
679 14-03-2003 20:40:13 3.8 C 3.58 g/m*3 3.8 C 0 km/h
680 14-03-2003 20:52:13 3.7 C 3.61 g/m*3 3.7 C 0 km/h
681 14-03-2003 21:05:37 3.5 C 3.63 g/m*3 3.5 C 0 km/h
682 14-03-2003 21:17:37 3.5 C 3.63 g/m*3 3.5 C 0 km/h
683 14-03-2003 21:29:37 3.6 C 3.59 g/m*3 3.6 C 0 km/h
684 14-03-2003 21:41:37 3.7 C 3.61 g/m*3 3.7 C 0 km/h
685 14-03-2003 21:53:37 3.7 C 3.61 g/m*3 3.7 C 0 km/h
686 14-03-2003 22:05:37 3.9 C 3.6 g/m*3 3.9 C 0 km/h
687 14-03-2003 22:17:37 4 C 3.5 g/m*3 4 C 0 km/h
688 14-03-2003 22:29:37 3.8 C 3.51 g/m*3 3.8 C 0 km/h
689 14-03-2003 22:41:37 3.8 C 3.45 g/m*3 3.8 C 0 km/h
690 14-03-2003 22:53:37 3.6 C 3.47 g/m*3 3.6 C 0 km/h
691 14-03-2003 23:05:37 3.6 C 3.4 g/m*3 3.6 C 0 km/h
692 14-03-2003 23:17:37 3.4 C 3.42 g/m*3 3.4 C 0 km/h
693 14-03-2003 23:29:37 3.3 C 3.4 g/m*3 3.3 C 0 km/h
694 14-03-2003 23:41:37 3.4 C 3.36 g/m*3 3.4 C 0 km/h
695 14-03-2003 23:53:37 3 C 3.33 g/m*3 3 C 0 km/h
696 15-03-2003 00:05:37 2.4 C 3.43 g/m*3 2.4 C 0 km/h
697 15-03-2003 00:17:37 2 C 3.33 g/m*3 2 C 0 km/h
698 15-03-2003 00:29:37 1.7 C 3.38 g/m*3 1.7 C 0 km/h
699 15-03-2003 00:41:37 1.8 C 3.4 g/m*3 1.8 C 0 km/h
700 15-03-2003 00:53:37 1.8 C 3.4 g/m*3 1.8 C 0 km/h
Sensor: Nr:Datum:Temp:Abs-Feuchte:Windchill:Wind:
Aussen-T/F 701 15-03-2003 01:05:37 1.6 C 3.41 g/m*3 1.6 C 0 km/h
702 15-03-2003 01:17:37 1.5 C 3.44 g/m*3 1.5 C 0 km/h
703 15-03-2003 01:29:37 1.3 C 3.44 g/m*3 1.3 C 0 km/h
704 15-03-2003 01:41:37 1.2 C 3.47 g/m*3 1.2 C 0 km/h
705 15-03-2003 02:05:37 1.1 C 3.5 g/m*3 1.1 C 0 km/h
706 15-03-2003 02:17:37 1 C 3.53 g/m*3 1 C 0 km/h
707 15-03-2003 02:29:37 1 C 3.53 g/m*3 1 C 0 km/h
708 15-03-2003 02:41:37 0.9 C 3.61 g/m*3 0.9 C 0 km/h
709 15-03-2003 02:53:37 0.8 C 3.58 g/m*3 0.8 C 0 km/h
710 15-03-2003 03:05:37 0.7 C 3.61 g/m*3 0.7 C 0 km/h
711 15-03-2003 03:17:37 0.4 C 3.54 g/m*3 0.4 C 0 km/h
712 15-03-2003 03:29:37 0.4 C 3.54 g/m*3 0.4 C 0 km/h
713 15-03-2003 03:41:37 0.3 C 3.56 g/m*3 0.3 C 0 km/h
714 15-03-2003 03:53:37 0.3 C 3.56 g/m*3 0.3 C 0 km/h
715 15-03-2003 04:05:37 0.1 C 3.51 g/m*3 0.1 C 0 km/h
716 15-03-2003 04:17:37 0.1 C 3.51 g/m*3 0.1 C 0 km/h
717 15-03-2003 04:29:37 -0.1 C 3.51 g/m*3 -0.1 C 0 km/h
718 15-03-2003 04:41:37 -0.2 C 3.49 g/m*3 -0.2 C 0 km/h
719 15-03-2003 04:53:37 -0.2 C 3.49 g/m*3 -0.2 C 0 km/h
720 15-03-2003 05:05:37 -0.3 C 3.46 g/m*3 -0.3 C 0 km/h
721 15-03-2003 05:17:37 -0.4 C 3.44 g/m*3 -0.4 C 0 km/h
722 15-03-2003 05:29:37 -0.4 C 3.44 g/m*3 -0.4 C 0 km/h
723 15-03-2003 05:41:37 -0.5 C 3.42 g/m*3 -0.5 C 0 km/h
724 15-03-2003 05:53:37 -0.5 C 3.42 g/m*3 -0.5 C 0 km/h
725 15-03-2003 06:05:37 -0.5 C 3.42 g/m*3 -0.5 C 0 km/h
Sensor: Nr:Datum:Temp:Abs-Feuchte:Windchill:Wind:
Aussen-T/F 726 15-03-2003 06:17:37 -0.2 C 3.44 g/m*3 -0.2 C 0 km/h
727 15-03-2003 06:29:37 -0.2 C 3.39 g/m*3 -0.2 C 0 km/h
728 15-03-2003 06:41:37 -0.3 C 3.37 g/m*3 -0.3 C 0 km/h
729 15-03-2003 06:53:37 -0.3 C 3.37 g/m*3 -0.3 C 0 km/h
730 15-03-2003 07:05:37 -0.3 C 3.37 g/m*3 -0.3 C 0 km/h
731 15-03-2003 07:17:37 -0.3 C 3.37 g/m*3 -0.3 C 0 km/h
732 15-03-2003 07:29:37 -0.3 C 3.42 g/m*3 -0.3 C 0 km/h
733 15-03-2003 07:41:37 -0.2 C 3.44 g/m*3 -0.2 C 0 km/h
734 15-03-2003 07:53:37 -0.2 C 3.49 g/m*3 -0.2 C 0 km/h
735 15-03-2003 08:05:37 0.1 C 3.51 g/m*3 0.1 C 0 km/h
736 15-03-2003 08:17:37 0.3 C 3.56 g/m*3 0.3 C 0 km/h
737 15-03-2003 08:29:37 0.5 C 3.56 g/m*3 0.5 C 0 km/h
738 15-03-2003 08:41:14 0.7 C 3.66 g/m*3 0.7 C 0 km/h
739 15-03-2003 08:53:14 0.9 C 3.71 g/m*3 0.9 C 0 km/h
740 15-03-2003 09:05:14 1.3 C 3.71 g/m*3 1.3 C 0 km/h
741 15-03-2003 09:17:14 2 C 3.72 g/m*3 2 C 0 km/h
742 15-03-2003 09:29:14 3.1 C 3.71 g/m*3 3.1 C 0 km/h
743 15-03-2003 09:41:14 3.7 C 3.74 g/m*3 3.7 C 0 km/h
744 15-03-2003 09:53:14 3.9 C 3.79 g/m*3 3.9 C 0 km/h
745 15-03-2003 10:05:13 4.1 C 3.71 g/m*3 4.1 C 0 km/h
746 15-03-2003 10:17:13 4.6 C 3.77 g/m*3 4.6 C 0 km/h
747 15-03-2003 10:29:13 5.3 C 3.67 g/m*3 5.3 C 0 km/h
748 15-03-2003 10:41:13 5.4 C 3.63 g/m*3 5.4 C 0 km/h
749 15-03-2003 10:53:13 5.9 C 3.68 g/m*3 5.9 C 0 km/h
750 15-03-2003 11:05:14 6.6 C 3.7 g/m*3 6.6 C 0 km/h
Sensor: Nr:Datum:Temp:Abs-Feuchte:Windchill:Wind:
Aussen-T/F 751 15-03-2003 11:17:14 7.5 C 3.68 g/m*3 7.5 C 0 km/h
752 15-03-2003 11:29:14 8.3 C 3.71 g/m*3 8.3 C 0 km/h
753 15-03-2003 11:41:14 8.8 C 3.57 g/m*3 8.8 C 0 km/h
754 15-03-2003 11:53:14 9.2 C 3.48 g/m*3 9.2 C 0 km/h
755 15-03-2003 12:05:14 8.9 C 3.33 g/m*3 8.9 C 0 km/h
756 15-03-2003 12:17:14 10.6 C 3.42 g/m*3 10.6 C 0 km/h
757 15-03-2003 12:29:14 10.8 C 3.36 g/m*3 10.8 C 0 km/h
758 15-03-2003 12:41:14 10.4 C 3.28 g/m*3 10.4 C 0 km/h
759 15-03-2003 12:53:14 10.3 C 3.35 g/m*3 10.3 C 0 km/h
760 15-03-2003 13:05:14 10.1 C 3.4 g/m*3 10.1 C 0 km/h
761 15-03-2003 13:17:14 10.2 C 3.43 g/m*3 10.2 C 0 km/h
762 15-03-2003 13:29:14 10.1 C 3.4 g/m*3 10.1 C 0 km/h
763 15-03-2003 13:41:14 10.7 C 3.63 g/m*3 10.7 C 0 km/h
764 15-03-2003 13:53:14 10.9 C 3.48 g/m*3 10.9 C 0 km/h
765 15-03-2003 14:05:14 11.5 C 3.72 g/m*3 11.5 C 0 km/h
766 15-03-2003 14:17:14 11.6 C 3.64 g/m*3 11.6 C 0 km/h
767 15-03-2003 14:29:14 12 C 3.41 g/m*3 12 C 0 km/h
768 15-03-2003 14:41:14 12.3 C 3.47 g/m*3 12.3 C 0 km/h
769 15-03-2003 14:53:14 12.6 C 3.43 g/m*3 12.6 C 0 km/h
770 15-03-2003 15:05:13 13.2 C 3.56 g/m*3 13.2 C 0 km/h
771 15-03-2003 15:17:13 13.5 C 3.51 g/m*3 13.5 C 0 km/h
772 15-03-2003 15:29:13 13 C 3.29 g/m*3 13 C 0 km/h
773 15-03-2003 15:41:13 13.3 C 3.47 g/m*3 13.3 C 0 km/h
774 15-03-2003 15:53:13 13.5 C 3.39 g/m*3 13.5 C 0 km/h
775 15-03-2003 16:05:13 13.1 C 3.2 g/m*3 13.1 C 0 km/h
Sensor: Nr:Datum:Temp:Abs-Feuchte:Windchill:Wind:
Aussen-T/F 776 15-03-2003 16:17:13 13.4 C 3.37 g/m*3 13.4 C 0 km/h
777 15-03-2003 16:29:13 13.2 C 3.33 g/m*3 13.2 C 0 km/h
778 15-03-2003 16:41:13 13.1 C 3.42 g/m*3 13.1 C 0 km/h
779 15-03-2003 16:53:13 13.3 C 3.47 g/m*3 13.3 C 0 km/h
780 15-03-2003 17:05:14 12.7 C 3.56 g/m*3 12.7 C 0 km/h
781 15-03-2003 17:17:14 12.4 C 3.61 g/m*3 12.4 C 0 km/h
782 15-03-2003 17:29:14 12.1 C 3.43 g/m*3 12.1 C 0 km/h
783 15-03-2003 17:41:14 11.5 C 3.51 g/m*3 11.5 C 0 km/h
784 15-03-2003 17:53:14 11.1 C 3.53 g/m*3 11.1 C 0 km/h
785 15-03-2003 18:05:13 10.5 C 3.69 g/m*3 10.5 C 0 km/h
786 15-03-2003 18:17:13 9.7 C 3.78 g/m*3 9.7 C 0 km/h
787 15-03-2003 18:29:13 9 C 3.88 g/m*3 9 C 0 km/h
788 15-03-2003 18:41:13 8.3 C 3.88 g/m*3 8.3 C 0 km/h
789 15-03-2003 18:53:13 7.7 C 3.97 g/m*3 7.7 C 0 km/h
790 15-03-2003 19:05:14 7.3 C 3.95 g/m*3 7.3 C 0 km/h
791 15-03-2003 19:17:14 6.9 C 4 g/m*3 6.9 C 0 km/h
792 15-03-2003 19:29:14 6.5 C 3.97 g/m*3 6.5 C 0 km/h
793 15-03-2003 19:41:14 6.2 C 4.04 g/m*3 6.2 C 0 km/h
794 15-03-2003 19:53:14 6 C 4.06 g/m*3 6 C 0 km/h
795 15-03-2003 20:05:14 5.6 C 4.1 g/m*3 5.6 C 0 km/h
796 15-03-2003 20:17:14 5.6 C 4.17 g/m*3 5.6 C 0 km/h
797 15-03-2003 20:29:14 5.3 C 4.09 g/m*3 5.3 C 0 km/h
798 15-03-2003 20:41:14 5.1 C 4.04 g/m*3 5.1 C 0 km/h
799 15-03-2003 20:53:14 5 C 4.08 g/m*3 5 C 0 km/h
800 15-03-2003 21:06:12 4.7 C 4.06 g/m*3 4.7 C 0 km/h
Sensor: Nr:Datum:Temp:Abs-Feuchte:Windchill:Wind:
Aussen-T/F 801 15-03-2003 21:18:12 4.5 C 4.01 g/m*3 4.5 C 0 km/h
802 15-03-2003 21:30:12 4.4 C 4.05 g/m*3 4.4 C 0 km/h
803 15-03-2003 21:42:12 4.2 C 3.99 g/m*3 4.2 C 0 km/h
804 15-03-2003 21:54:12 3.9 C 3.98 g/m*3 3.9 C 0 km/h
805 15-03-2003 22:06:12 3.6 C 3.96 g/m*3 3.6 C 0 km/h
806 15-03-2003 22:18:12 3.4 C 3.97 g/m*3 3.4 C 0 km/h
807 15-03-2003 22:30:12 3.1 C 3.83 g/m*3 3.1 C 0 km/h
808 15-03-2003 22:42:12 3.1 C 3.77 g/m*3 3.1 C 0 km/h
809 15-03-2003 22:54:12 3 C 3.75 g/m*3 3 C 0 km/h
810 15-03-2003 23:06:12 2.6 C 3.7 g/m*3 2.6 C 0 km/h
811 15-03-2003 23:18:12 2.4 C 3.71 g/m*3 2.4 C 0 km/h
812 15-03-2003 23:30:12 2.2 C 3.66 g/m*3 2.2 C 0 km/h
813 15-03-2003 23:42:12 2 C 3.61 g/m*3 2 C 0 km/h
814 15-03-2003 23:54:12 2 C 3.61 g/m*3 2 C 0 km/h
815 16-03-2003 00:06:12 2 C 3.61 g/m*3 2 C 0 km/h
816 16-03-2003 00:18:12 1.9 C 3.64 g/m*3 1.9 C 0 km/h
817 16-03-2003 00:30:12 1.8 C 3.62 g/m*3 1.8 C 0 km/h
818 16-03-2003 00:42:12 2 C 3.61 g/m*3 2 C 0 km/h
819 16-03-2003 00:54:12 2 C 3.61 g/m*3 2 C 0 km/h
820 16-03-2003 01:06:12 1.7 C 3.65 g/m*3 1.7 C 0 km/h
821 16-03-2003 01:18:12 1.5 C 3.6 g/m*3 1.5 C 0 km/h
822 16-03-2003 01:30:12 1.1 C 3.61 g/m*3 1.1 C 0 km/h
823 16-03-2003 01:42:12 0.9 C 3.66 g/m*3 0.9 C 0 km/h
824 16-03-2003 01:54:12 0.6 C 3.64 g/m*3 0.6 C 0 km/h
825 16-03-2003 02:06:12 0.3 C 3.56 g/m*3 0.3 C 0 km/h
Sensor: Nr:Datum:Temp:Abs-Feuchte:Windchill:Wind:
Aussen-T/F 826 16-03-2003 02:18:12 0.2 C 3.64 g/m*3 0.2 C 0 km/h
827 16-03-2003 02:30:12 0.1 C 3.61 g/m*3 0.1 C 0 km/h
828 16-03-2003 02:42:12 -0.2 C 3.54 g/m*3 -0.2 C 0 km/h
829 16-03-2003 02:54:12 -0.3 C 3.56 g/m*3 -0.3 C 0 km/h
830 16-03-2003 03:06:12 -0.5 C 3.51 g/m*3 -0.5 C 0 km/h
831 16-03-2003 03:18:12 -0.4 C 3.53 g/m*3 -0.4 C 0 km/h
832 16-03-2003 03:30:12 -0.5 C 3.51 g/m*3 -0.5 C 0 km/h
833 16-03-2003 03:42:12 -0.7 C 3.51 g/m*3 -0.7 C 0 km/h
834 16-03-2003 03:54:12 -0.9 C 3.46 g/m*3 -0.9 C 0 km/h
835 16-03-2003 04:06:12 -1.1 C 3.46 g/m*3 -1.1 C 0 km/h
836 16-03-2003 04:18:12 -1.4 C 3.39 g/m*3 -1.4 C 0 km/h
837 16-03-2003 04:30:12 -1.5 C 3.32 g/m*3 -1.5 C 0 km/h
838 16-03-2003 04:42:12 -1.5 C 3.36 g/m*3 -1.5 C 0 km/h
839 16-03-2003 04:54:12 -1.6 C 3.34 g/m*3 -1.6 C 0 km/h
840 16-03-2003 05:06:12 -1.6 C 3.38 g/m*3 -1.6 C 0 km/h
841 16-03-2003 05:18:12 -1.7 C 3.4 g/m*3 -1.7 C 0 km/h
842 16-03-2003 05:30:12 -1.9 C 3.31 g/m*3 -1.9 C 0 km/h
843 16-03-2003 05:42:12 -1.9 C 3.35 g/m*3 -1.9 C 0 km/h
844 16-03-2003 05:54:12 -2 C 3.37 g/m*3 -2 C 0 km/h
845 16-03-2003 06:06:12 -1.9 C 3.4 g/m*3 -1.9 C 0 km/h
846 16-03-2003 06:18:12 -2 C 3.37 g/m*3 -2 C 0 km/h
847 16-03-2003 06:30:12 -1.9 C 3.44 g/m*3 -1.9 C 0 km/h
848 16-03-2003 06:42:12 -2 C 3.41 g/m*3 -2 C 0 km/h
849 16-03-2003 06:54:12 -2.1 C 3.39 g/m*3 -2.1 C 0 km/h
850 16-03-2003 07:06:12 -2.1 C 3.39 g/m*3 -2.1 C 0 km/h
Sensor: Nr:Datum:Temp:Abs-Feuchte:Windchill:Wind:
Aussen-T/F 851 16-03-2003 07:18:12 -2.1 C 3.39 g/m*3 -2.1 C 0 km/h
852 16-03-2003 07:30:12 -2 C 3.46 g/m*3 -2 C 0 km/h
853 16-03-2003 07:42:12 -2.1 C 3.39 g/m*3 -2.1 C 0 km/h
854 16-03-2003 07:54:12 -1.9 C 3.48 g/m*3 -1.9 C 0 km/h
855 16-03-2003 08:06:12 -1.9 C 3.48 g/m*3 -1.9 C 0 km/h
856 16-03-2003 08:18:12 -1.7 C 3.53 g/m*3 -1.7 C 0 km/h
857 16-03-2003 08:30:12 -1.5 C 3.58 g/m*3 -1.5 C 0 km/h
858 16-03-2003 08:42:12 -1.4 C 3.6 g/m*3 -1.4 C 0 km/h
859 16-03-2003 08:54:12 -1.1 C 3.68 g/m*3 -1.1 C 0 km/h
860 16-03-2003 09:06:12 -0.8 C 3.71 g/m*3 -0.8 C 0 km/h
861 16-03-2003 09:18:12 0.1 C 3.9 g/m*3 0.1 C 0 km/h
862 16-03-2003 09:30:12 0.8 C 3.94 g/m*3 0.8 C 0 km/h
863 16-03-2003 09:42:12 1.8 C 4.11 g/m*3 1.8 C 0 km/h
864 16-03-2003 09:54:12 2.7 C 4.08 g/m*3 2.7 C 0 km/h
865 16-03-2003 10:06:14 3.4 C 4.03 g/m*3 3.4 C 0 km/h
866 16-03-2003 10:18:14 4.3 C 4.15 g/m*3 4.3 C 0 km/h
867 16-03-2003 10:30:14 4.9 C 4.12 g/m*3 4.9 C 0 km/h
868 16-03-2003 10:42:14 5.7 C 3.91 g/m*3 5.7 C 0 km/h
869 16-03-2003 10:54:14 6.5 C 3.75 g/m*3 6.5 C 0 km/h
870 16-03-2003 11:06:13 7.2 C 3.69 g/m*3 7.2 C 0 km/h
871 16-03-2003 11:18:13 7.8 C 3.51 g/m*3 7.8 C 0 km/h
872 16-03-2003 11:30:13 8.2 C 3.43 g/m*3 8.2 C 0 km/h
873 16-03-2003 11:42:13 8.8 C 3.57 g/m*3 8.8 C 0 km/h
874 16-03-2003 11:54:13 9.2 C 3.39 g/m*3 9.2 C 0 km/h
875 16-03-2003 12:06:13 9.8 C 3.34 g/m*3 9.8 C 0 km/h
Sensor: Nr:Datum:Temp:Abs-Feuchte:Windchill:Wind:
Aussen-T/F 876 16-03-2003 12:18:13 10.7 C 3.44 g/m*3 10.7 C 0 km/h
877 16-03-2003 12:30:13 11.2 C 3.34 g/m*3 11.2 C 0 km/h
878 16-03-2003 12:42:13 11 C 3.1 g/m*3 11 C 0 km/h
879 16-03-2003 12:54:13 11.7 C 3.35 g/m*3 11.7 C 0 km/h
880 16-03-2003 13:06:13 11.8 C 3.47 g/m*3 11.8 C 0 km/h
881 16-03-2003 13:18:13 12 C 3.52 g/m*3 12 C 0 km/h
882 16-03-2003 13:30:13 12 C 3.41 g/m*3 12 C 0 km/h
883 16-03-2003 13:42:13 12.5 C 3.63 g/m*3 12.5 C 0 km/h
884 16-03-2003 13:54:13 13 C 3.52 g/m*3 13 C 0 km/h
885 16-03-2003 14:06:13 13.4 C 3.49 g/m*3 13.4 C 0 km/h
886 16-03-2003 14:18:13 13.9 C 3.48 g/m*3 13.9 C 0 km/h
887 16-03-2003 14:30:13 14.2 C 3.42 g/m*3 14.2 C 0 km/h
888 16-03-2003 14:42:13 14.4 C 3.46 g/m*3 14.4 C 0 km/h
889 16-03-2003 14:54:13 14.8 C 3.42 g/m*3 14.8 C 0 km/h
890 16-03-2003 15:06:14 15.2 C 3.24 g/m*3 15.2 C 0 km/h
891 16-03-2003 15:18:14 15.9 C 3.39 g/m*3 15.9 C 0 km/h
892 16-03-2003 15:30:14 16 C 3.41 g/m*3 16 C 0 km/h
893 16-03-2003 15:42:14 16 C 3.27 g/m*3 16 C 0 km/h
894 16-03-2003 15:54:14 16.4 C 3.49 g/m*3 16.4 C 0 km/h
895 16-03-2003 16:06:13 16.2 C 3.03 g/m*3 16.2 C 0 km/h
896 16-03-2003 16:18:13 16.4 C 3.35 g/m*3 16.4 C 0 km/h
897 16-03-2003 16:30:13 16.5 C 3.23 g/m*3 16.5 C 0 km/h
898 16-03-2003 16:42:13 16.1 C 3.02 g/m*3 16.1 C 0 km/h
899 16-03-2003 16:54:13 16.4 C 3.49 g/m*3 16.4 C 0 km/h
900 16-03-2003 17:06:13 16.1 C 3.43 g/m*3 16.1 C 0 km/h
Sensor: Nr:Datum:Temp:Abs-Feuchte:Windchill:Wind:
Aussen-T/F 901 16-03-2003 17:18:13 16 C 3.41 g/m*3 16 C 0 km/h
902 16-03-2003 17:30:13 16 C 3.81 g/m*3 16 C 0 km/h
903 16-03-2003 17:42:13 15.3 C 3.4 g/m*3 15.3 C 0 km/h
904 16-03-2003 17:54:13 14.8 C 3.8 g/m*3 14.8 C 0 km/h
905 16-03-2003 18:06:13 13.8 C 3.93 g/m*3 13.8 C 0 km/h
906 16-03-2003 18:18:13 13 C 3.97 g/m*3 13 C 0 km/h
907 16-03-2003 18:30:13 11.4 C 4.11 g/m*3 11.4 C 0 km/h
908 16-03-2003 18:42:13 10.1 C 3.97 g/m*3 10.1 C 0 km/h
909 16-03-2003 18:54:13 9.7 C 3.96 g/m*3 9.7 C 0 km/h
910 16-03-2003 19:06:13 9.2 C 4.02 g/m*3 9.2 C 0 km/h
911 16-03-2003 19:18:13 8.5 C 4.1 g/m*3 8.5 C 0 km/h
912 16-03-2003 19:30:13 8.1 C 3.99 g/m*3 8.1 C 0 km/h
913 16-03-2003 19:43:14 7.6 C 4.11 g/m*3 7.6 C 0 km/h
914 16-03-2003 19:55:14 7.3 C 4.11 g/m*3 7.3 C 0 km/h
915 16-03-2003 20:07:14 7 C 4.26 g/m*3 7 C 0 km/h
916 16-03-2003 20:19:14 6.7 C 4.26 g/m*3 6.7 C 0 km/h
917 16-03-2003 20:31:14 6.5 C 4.2 g/m*3 6.5 C 0 km/h
918 16-03-2003 20:43:14 6.3 C 4.22 g/m*3 6.3 C 0 km/h
919 16-03-2003 20:55:14 6 C 4.21 g/m*3 6 C 0 km/h
920 16-03-2003 21:07:14 5.8 C 4.3 g/m*3 5.8 C 0 km/h
921 16-03-2003 21:19:14 5.4 C 4.19 g/m*3 5.4 C 0 km/h
922 16-03-2003 21:31:14 5.1 C 4.24 g/m*3 5.1 C 0 km/h
923 16-03-2003 21:43:14 4.9 C 4.25 g/m*3 4.9 C 0 km/h
924 16-03-2003 21:55:14 4.5 C 4.21 g/m*3 4.5 C 0 km/h
925 16-03-2003 22:07:14 4.2 C 4.19 g/m*3 4.2 C 0 km/h
Sensor: Nr:Datum:Temp:Abs-Feuchte:Windchill:Wind:
Aussen-T/F 926 16-03-2003 22:19:14 3.7 C 4.18 g/m*3 3.7 C 0 km/h
927 16-03-2003 22:31:14 3.8 C 4.33 g/m*3 3.8 C 0 km/h
928 16-03-2003 22:43:14 3.6 C 4.27 g/m*3 3.6 C 0 km/h
929 16-03-2003 22:55:14 3.4 C 4.28 g/m*3 3.4 C 0 km/h
930 16-03-2003 23:07:14 3.4 C 4.28 g/m*3 3.4 C 0 km/h
931 16-03-2003 23:19:14 3.2 C 4.22 g/m*3 3.2 C 0 km/h
932 16-03-2003 23:31:14 3 C 4.22 g/m*3 3 C 0 km/h
933 16-03-2003 23:43:14 3 C 4.16 g/m*3 3 C 0 km/h
934 16-03-2003 23:55:14 2.7 C 4.14 g/m*3 2.7 C 0 km/h

Legende:
   Min
   Max


Maximal/Minimal-Werte vom 09.03.2003 - 16.03.2003

Sensor Min Max Avg
Temp
(Aussen-T/F)
-2.1 °C
14-03-2003  07:28:13
17.7 °C
10-03-2003  14:14:12
8.04 °C
Abs-Feuchte
(Aussen-T/F)
2.3 g/m*3
13-03-2003  17:51:14
7.79 g/m*3
12-03-2003  00:40:12
4.77 g/m*3
Windchill
(Aussen-T/F)
-2.1 C
14-03-2003  07:28:13
17.7 C
10-03-2003  14:14:12
8.04 C

Die Daten stammen von einer Davis Vantage Pro 2 Wetter-Station und werden unter Linux mit der Software wview2wettercgi und aufbereitet. Alle Angaben erfolgen ohne Gewähr für ihre Vollständigkeit oder Richtigkeit.
Kontakt: Rainer Krienke krienke@uni-koblenz.de . Meine Webseiten an der Uni Koblenz oder privat.
Version: $Revision: 0.78 $